GFSNGP_2pvu_pres_000.txt.gz
Presure
197 191 197 211 193 175 172 156 179 171 149 184 191 182 179 152 163 164 171 166 179 163 158 150 174 179 179 171 166 171 176 185 188 134 130 159 136 144 128 177 142 204 151 178
237 154 195 148 219 157 155 195 149 134 140 197 201 179 163 158 133 133 142 154 182 179 176 166 162 173 188 189 186 191 199 107 103 161 147 129 194 133 135 163 137 192 210 235
227 204 204 218 192 129 157 199 200 160 158 202 200 160 178 179 167 176 179 188 186 174 167 167 181 189 192 193 180 188 191 127 102 126 133 168 154 216 137 141 147 216 133 218
221 208 184 219 216 174 175 159 156 170 147 146 175 170 174 176 169 164 171 149 150 191 192 194 193 161 163 186 202 192 135 128 121 173 155 201 151 146 179 226 138 270 358 372
160 157 141 149 158 193 197 195 198 135 193 152 197 175 170 168 164 169 191 188 188 191 198 200 125 126 148 172 170 133 125 132 135 134 93 132 163 155 127 248 162 392 408 408
151 150 150 208 203 196 200 170 171 164 180 183 160 137 183 189 179 187 192 163 182 178 181 156 210 151 120 183 197 128 146 158 136 178 153 215 285 136 240 413 283 407 397 395
166 140 189 167 170 198 196 203 209 194 170 187 187 191 190 111 103 166 149 167 177 204 149 107 180 126 201 192 159 134 130 138 192 176 206 391 421 403 398 388 389 385 387 385
158 216 206 208 188 183 206 182 209 188 184 200 174 157 181 159 98 140 177 200 203 155 201 194 167 176 172 135 187 196 143 211 181 294 358 419 408 393 388 381 380 378 383 385
150 197 197 201 204 192 159 200 204 205 169 167 197 173 220 104 126 151 193 144 128 188 202 208 191 159 216 190 219 254 258 282 301 414 424 411 397 384 376 377 380 388 384 381
200 201 207 148 159 205 194 199 214 225 207 239 233 211 200 189 144 160 169 162 153 124 212 188 231 197 235 228 261 191 288 314 408 425 415 400 380 378 383 386 382 381 376 365
243 200 242 243 236 198 207 206 223 225 204 193 155 145 149 167 160 153 166 153 176 225 222 214 195 229 245 254 270 286 332 402 418 407 394 386 385 386 376 373 361 353 356 364
241 174 173 152 150 169 174 159 148 155 162 147 133 110 152 193 200 180 204 141 181 215 199 224 217 163 214 265 289 404 426 411 398 388 385 379 380 385 351 343 346 356 512 509
142 141 142 135 132 162 149 144 150 163 122 211 164 159 190 212 214 160 214 131 134 123 216 195 223 261 267 278 338 412 404 391 388 380 382 385 254 352 356 348 483 486 473 465
129 126 170 168 187 168 123 118 129 183 160 188 206 213 208 194 138 126 136 144 224 225 231 159 254 265 285 329 408 397 388 382 377 383 364 337 191 353 467 507 391 368 389 417
126 180 162 158 205 147 129 181 164 155 203 197 184 207 222 172 120 183 208 218 227 236 251 259 264 291 313 405 394 385 382 377 376 358 255 193 334 442 424 386 372 370 356 364
208 131 207 132 132 201 196 196 194 185 156 130 203 225 215 215 227 192 227 220 206 243 259 260 271 320 295 394 384 386 374 373 357 309 191 412 430 415 393 371 362 370 359 354
116 136 199 209 188 215 219 202 149 189 155 163 218 205 122 228 213 224 232 126 240 253 263 280 324 323 392 381 378 379 353 358 341 348 347 432 418 391 386 359 360 366 356 362
188 211 196 197 217 144 162 212 210 152 216 221 128 187 228 221 135 236 237 227 261 261 268 331 346 394 379 373 378 370 361 346 341 343 419 411 409 367 357 371 371 367 329 330
217 162 205 143 144 167 152 203 216 216 126 212 166 226 211 124 237 242 247 261 262 267 334 393 395 381 377 306 370 346 354 329 345 334 408 400 393 394 393 392 390 362 316 436
127 185 142 195 219 206 208 216 223 210 208 221 224 210 228 239 243 261 269 265 271 336 425 416 388 376 307 371 357 352 339 346 340 405 397 382 351 349 387 317 297 332 401 424
135 138 183 221 205 220 150 215 215 176 212 220 233 229 236 252 270 250 269 303 341 423 414 398 313 377 370 361 337 344 329 345 327 408 388 366 346 342 318 348 430 404 382 386
208 208 189 223 212 154 220 224 214 227 230 234 233 247 264 274 262 279 326 343 422 416 408 309 377 369 361 343 337 334 349 333 380 404 379 359 360 375 376 380 381 379 366 377
214 213 213 217 205 216 215 218 223 232 234 247 256 274 262 288 280 281 395 417 410 393 383 370 378 364 344 334 341 341 341 318 407 386 371 400 396 364 358 353 360 362 350 361
218 223 214 216 227 219 218 218 233 241 248 266 255 275 289 325 336 417 419 404 396 320 374 293 366 353 330 336 340 346 326 406 393 380 414 385 357 379 423 407 191 351 349 351
222 223 220 221 213 221 227 236 248 256 255 255 259 273 296 368 429 358 320 392 309 383 385 367 356 328 334 339 345 331 336 408 387 387 381 359 433 390 396 405 417 365 353 365
220 223 215 220 230 236 242 256 267 278 300 263 294 331 417 382 330 313 393 386 382 381 366 353 329 330 338 344 328 361 417 397 386 385 367 423 412 409 429 502 465 391 370 414
223 233 242 251 263 271 292 314 298 262 316 323 333 425 330 322 309 386 380 377 381 359 351 329 332 339 345 324 439 428 410 387 382 378 427 458 420 471 463 473 426 408 412 445

GFSNGP_2pvu_pres_003.txt.gz
Presure
177 190 182 182 178 162 196 195 156 185 162 159 117 168 174 185 183 183 186 199 189 195 154 180 135 189 183 190 172 178 176 186 190 187 199 181 173 203 188 207 193 126 140 138
199 188 179 187 184 181 192 188 188 190 114 183 182 133 179 180 147 161 158 157 176 187 187 180 176 168 188 183 170 190 185 146 127 167 148 209 210 206 165 174 131 144 149 148
193 192 180 189 189 177 195 183 198 189 197 194 137 151 166 147 156 155 184 181 199 199 177 167 169 172 172 190 180 162 172 161 124 143 121 168 139 153 225 179 135 130 131 226
195 195 190 199 199 190 194 187 143 192 199 233 168 174 219 217 176 183 183 163 193 199 180 199 196 195 183 143 174 181 202 207 144 146 182 133 164 213 158 202 235 155 232 248
238 230 236 237 233 225 226 229 231 225 164 217 202 142 152 152 188 152 196 196 183 160 190 191 149 181 200 200 108 157 222 126 171 129 188 204 216 255 187 280 288 254 374 437
226 232 228 231 140 177 236 140 128 153 136 154 215 209 196 170 212 212 212 208 188 130 95 207 154 173 155 95 148 144 128 170 189 193 182 205 200 266 285 214 337 441 432 413
224 222 177 216 215 196 147 157 190 193 209 208 188 202 205 201 201 211 204 180 162 134 166 158 132 137 234 189 116 210 192 156 211 228 189 220 223 217 336 407 435 415 404 397
149 221 122 211 147 173 130 170 208 212 199 213 211 209 207 206 207 210 213 191 183 125 170 164 177 118 150 193 92 203 211 195 188 200 246 278 302 327 345 424 415 404 397 386
222 150 209 206 217 152 204 214 213 215 209 206 164 161 200 176 194 194 201 135 152 128 210 197 166 174 182 210 187 180 228 190 175 261 236 255 324 334 421 411 403 388 373 369
218 220 230 213 137 143 200 204 188 207 208 204 201 207 210 203 161 152 127 132 123 168 175 185 192 203 180 187 219 217 238 155 232 266 285 310 346 415 410 398 381 370 368 372
129 149 218 222 215 206 173 202 207 209 212 187 186 156 158 143 172 124 126 224 171 191 193 169 196 192 188 173 214 153 182 264 281 287 289 363 403 405 399 379 366 367 384 180
216 159 208 218 211 209 213 167 167 142 140 140 146 143 131 128 133 203 190 195 198 167 177 186 200 207 116 129 237 246 266 277 288 293 400 414 402 317 376 362 356 356 444 423
264 266 267 206 149 143 143 144 144 133 150 196 125 128 127 219 220 196 166 156 164 196 168 210 202 122 212 225 245 262 284 288 292 408 410 401 348 388 371 346 352 433 419 365
162 221 212 140 141 138 135 152 146 178 143 127 124 177 199 196 185 179 176 186 176 209 195 172 126 202 217 239 257 273 291 291 393 412 405 386 393 374 348 361 413 418 414 388
144 166 168 145 141 120 162 134 196 135 128 162 197 196 207 193 204 160 197 206 206 204 162 202 208 243 214 266 279 295 291 318 417 405 392 390 375 360 336 352 428 406 404 404
136 140 139 128 133 139 207 193 179 191 215 190 154 196 170 203 191 215 203 213 212 180 220 205 155 246 266 267 289 301 407 429 409 390 389 378 360 341 359 390 418 363 345 405
137 138 140 113 192 187 200 205 200 212 169 143 143 197 211 217 222 209 124 194 155 220 233 233 249 252 266 263 272 417 424 418 389 389 379 358 351 357 348 439 402 363 351 340
110 199 193 188 199 199 208 199 200 160 192 144 150 215 211 210 183 194 215 213 216 237 207 247 250 267 282 271 430 422 416 403 386 383 368 351 337 357 334 422 385 372 472 410
183 189 195 199 198 203 173 171 207 192 169 199 211 224 214 216 221 219 211 224 234 234 245 252 270 284 274 404 400 330 401 356 385 374 352 340 356 342 427 395 380 398 381 433
196 201 201 202 201 176 131 198 210 189 204 223 219 220 222 215 220 213 216 235 237 249 255 270 321 278 353 339 326 323 380 390 376 356 335 351 351 324 417 384 420 379 367 380
193 192 192 127 128 129 173 205 214 212 220 217 220 221 222 213 205 224 233 247 260 267 290 298 314 346 338 324 328 392 392 380 360 342 345 348 334 435 403 405 373 357 365 370
192 194 185 193 205 197 209 222 224 202 216 222 213 218 208 222 229 242 257 265 284 321 335 347 343 336 327 319 388 388 382 364 342 336 347 341 417 429 391 386 370 432 456 379
206 201 203 203 214 214 224 217 219 208 207 224 226 233 238 249 257 263 289 300 303 338 339 336 334 329 328 390 389 376 367 344 336 349 339 429 439 407 349 380 442 400 457 381
216 222 214 216 220 221 215 214 213 229 237 247 251 259 262 267 298 293 270 344 347 338 329 338 333 372 392 386 381 371 346 341 348 336 453 443 421 398 386 453 396 417 421 377
205 221 223 215 218 218 221 232 238 249 260 263 269 302 306 289 283 364 314 346 336 331 335 329 396 395 382 378 368 346 346 347 351 469 444 424 396 384 424 409 441 482 458 383
219 219 221 227 234 235 241 247 258 269 294 294 294 273 313 359 357 317 348 338 332 338 366 399 392 382 375 361 345 348 344 485 467 443 420 392 390 419 410 458 485 485 454 379
232 244 246 249 249 258 266 283 294 295 276 285 347 368 367 350 346 340 332 334 409 401 396 384 376 367 349 347 347 442 476 462 443 414 356 385 413 404 448 492 474 458 428 398

GFSNGP_2pvu_pres_006.txt.gz
Presure
200 192 195 195 184 184 189 188 181 184 177 172 177 183 185 170 159 110 171 172 167 177 173 181 169 179 191 182 183 181 201 197 184 179 192 164 154 170 196 180 159 136 144 137
215 203 199 194 197 194 193 199 171 185 160 176 180 181 192 160 159 159 168 166 184 190 168 141 193 167 198 188 168 186 201 201 157 151 178 98 114 158 222 142 213 167 144 168
189 187 193 192 194 190 179 154 185 177 181 163 185 191 192 172 197 187 190 180 142 165 189 187 174 210 178 194 193 177 127 157 187 148 180 141 148 204 195 184 201 213 189 206
207 201 196 199 180 188 175 187 182 177 185 193 190 198 189 185 189 197 191 194 193 135 170 191 205 178 205 134 97 212 201 158 131 167 131 164 190 182 194 212 210 200 213 222
183 182 178 179 187 182 186 184 190 189 176 181 192 204 203 196 140 166 218 203 156 215 219 214 207 198 212 114 213 114 141 186 225 141 209 191 209 220 226 218 233 200 236 292
191 189 185 200 197 194 190 194 199 189 199 199 133 149 153 213 206 145 153 220 223 211 195 210 208 202 213 209 128 196 138 135 220 211 204 176 228 218 201 204 216 217 231 310
141 200 198 199 202 198 199 184 189 215 218 226 138 133 220 143 194 221 214 213 213 214 215 210 216 203 156 127 160 169 192 170 209 197 119 187 207 216 250 242 273 320 326 435
201 198 238 198 132 128 239 131 243 197 127 236 220 141 223 210 215 219 221 214 148 173 203 197 189 123 144 175 199 140 195 193 177 207 151 169 189 200 220 235 288 305 437 424
151 214 217 128 132 222 127 216 150 213 220 201 199 200 215 212 209 199 199 202 203 211 217 126 132 168 199 203 177 193 195 204 181 116 197 189 204 256 271 295 301 435 424 420
230 223 221 164 223 182 214 217 206 177 174 134 216 212 204 202 212 190 214 151 126 127 127 167 187 218 151 169 202 205 182 191 111 193 189 193 212 268 296 292 439 418 417 406
205 206 213 184 184 220 221 220 212 196 173 194 192 210 211 210 179 141 152 140 124 153 221 214 198 174 166 202 179 185 173 162 207 228 233 246 262 292 279 407 414 413 410 390
211 217 217 221 130 131 172 180 191 219 216 217 164 165 143 128 141 120 121 119 189 196 188 184 147 188 186 183 197 203 195 197 204 226 215 263 287 314 443 367 354 347 380 366
164 171 204 226 221 222 233 235 231 230 229 145 133 138 139 147 120 176 198 211 209 160 127 199 185 201 212 209 192 219 212 213 231 249 269 288 319 319 357 339 322 387 363 358
258 208 253 224 210 212 248 246 240 144 143 139 130 200 143 128 166 187 191 196 135 175 178 209 202 214 199 207 208 216 209 218 251 281 293 326 365 360 343 409 397 374 346 359
249 249 172 158 174 195 178 170 138 126 137 180 147 194 161 182 187 206 144 171 143 196 192 197 184 200 215 213 218 221 225 259 284 303 308 370 358 342 342 398 382 358 355 350
195 191 162 151 149 190 139 140 133 139 174 198 180 177 188 135 195 174 119 195 207 205 216 208 182 215 216 230 168 256 268 281 313 285 350 357 347 336 404 386 367 343 356 338
202 143 204 207 135 134 141 119 202 193 187 184 188 196 202 199 135 126 197 205 214 206 186 211 228 229 180 180 264 253 287 315 293 435 352 348 345 404 395 378 354 349 344 380
197 191 163 205 177 148 197 190 170 185 188 198 180 193 134 135 199 168 197 216 213 212 233 226 219 188 260 249 287 312 291 329 319 345 347 347 406 394 380 359 341 350 327 414
188 188 138 94 85 187 175 180 194 199 196 189 181 133 133 201 174 205 222 216 219 229 233 242 241 264 274 302 294 278 363 322 345 344 346 404 394 383 367 346 348 337 429 420
176 195 180 175 180 170 196 193 200 193 191 135 186 163 204 216 222 211 218 220 235 237 244 250 261 300 311 300 370 362 360 348 345 350 404 392 383 370 350 348 343 448 419 375
206 203 197 200 196 193 191 193 194 194 196 201 195 219 218 209 218 227 231 233 250 240 261 267 304 291 388 385 368 360 344 343 407 403 391 381 368 352 349 344 458 427 387 450
192 192 193 189 166 194 153 197 204 211 206 221 218 213 221 225 233 234 249 252 264 269 306 302 337 393 380 364 351 340 375 407 397 387 377 361 351 351 358 461 432 390 434 407
189 188 195 197 202 206 208 207 214 212 221 222 220 230 234 233 241 251 283 295 311 329 404 401 348 369 358 342 337 409 399 390 382 373 355 350 353 480 459 432 393 421 446 425
209 207 199 197 203 210 215 215 230 224 222 234 234 232 243 257 283 311 359 286 303 409 386 371 367 350 337 336 402 392 388 379 364 350 352 482 474 454 426 393 408 430 458 484
204 206 185 205 220 229 230 227 224 235 235 235 242 246 158 322 278 303 316 355 399 390 438 351 336 336 405 393 388 383 373 355 351 383 472 459 443 412 387 401 431 447 511 516
218 225 230 226 226 225 229 238 237 236 244 270 217 286 279 316 340 336 335 444 431 368 334 337 373 396 390 386 378 363 351 382 466 461 447 424 407 377 398 428 448 521 504 411
225 223 228 234 236 233 232 235 274 276 275 274 273 336 345 335 325 331 412 375 338 337 391 398 390 387 380 368 353 365 473 450 446 436 409 387 382 407 424 446 512 500 490 378

GFSNGP_2pvu_pres_009.txt.gz
Presure
202 191 187 179 168 160 167 177 158 179 180 164 176 172 177 188 190 187 182 118 183 191 177 155 190 182 160 194 162 180 177 181 205 127 131 172 204 157 127 133 138 166 214 150
217 204 197 192 187 188 184 169 171 190 183 184 183 176 171 173 170 168 163 176 190 193 197 167 193 162 206 175 195 210 219 215 216 212 215 129 203 131 136 134 142 146 145 194
270 268 202 196 195 192 192 192 187 185 183 189 192 182 191 189 183 179 172 192 197 195 206 176 138 185 193 194 218 204 214 204 200 155 198 126 180 153 146 147 215 175 186 182
263 265 259 231 200 190 186 185 187 183 182 188 179 187 188 191 188 194 197 195 154 131 168 187 174 200 208 192 218 222 225 225 166 212 137 219 161 215 195 172 195 205 182 214
261 263 259 238 228 206 199 195 189 193 199 196 197 185 165 193 191 160 131 183 191 193 192 157 199 242 226 222 220 214 205 129 128 196 237 152 209 182 127 209 124 106 214 213
247 243 210 191 192 184 190 185 204 188 188 190 191 187 135 185 188 182 192 148 149 151 210 223 223 223 208 216 222 215 126 137 253 215 207 143 188 197 204 123 112 216 203 206
203 209 219 220 194 198 196 187 188 180 184 192 185 189 191 153 200 186 166 203 215 184 233 219 224 226 210 171 124 130 243 216 207 185 132 143 166 204 123 136 191 220 228 215
188 184 168 137 188 187 184 164 155 171 183 197 128 198 183 179 122 221 245 238 220 204 213 210 203 216 123 125 182 216 190 181 161 143 197 152 159 192 205 209 215 216 225 249
209 194 128 198 149 169 132 138 133 137 235 127 232 142 154 246 241 144 202 207 217 209 201 218 119 122 121 212 165 137 140 150 192 194 133 207 193 203 203 211 239 268 298 337
236 232 231 161 136 128 225 238 235 151 233 235 236 231 229 153 212 170 212 221 218 158 149 120 120 132 167 170 207 149 183 195 201 132 184 195 202 201 219 245 272 299 327 311
229 228 197 230 229 199 204 182 218 225 225 224 219 221 220 222 225 164 195 138 132 135 133 120 168 203 192 203 135 191 171 191 177 187 195 208 216 173 250 270 303 322 334 375
214 183 214 216 214 216 205 222 206 134 131 166 226 224 226 233 237 155 130 140 160 133 128 195 194 205 210 161 176 193 191 211 219 213 198 221 195 255 269 312 314 364 384 355
217 218 218 222 213 219 224 225 229 230 225 217 157 227 232 257 135 125 150 144 217 193 189 192 196 127 141 187 189 212 191 202 195 217 230 236 262 281 309 303 385 372 353 350
210 160 230 221 206 199 187 222 231 228 197 229 240 215 140 120 142 160 219 207 193 181 182 192 125 194 194 192 191 201 220 182 206 157 256 271 285 320 352 394 382 349 345 406
240 246 248 253 257 260 264 237 236 234 193 165 135 134 130 185 213 200 193 185 181 193 144 125 127 161 203 206 210 216 209 233 233 259 296 323 331 405 398 429 350 383 408 400
256 233 241 244 246 236 211 189 148 149 146 136 204 199 193 199 183 171 184 188 195 192 127 178 201 200 205 216 213 215 238 253 268 320 307 406 397 392 374 347 391 409 399 386
196 150 146 140 134 134 136 210 214 212 207 202 206 203 178 170 181 190 198 200 199 198 112 200 193 193 214 217 233 243 263 287 323 309 404 394 387 364 346 420 407 397 383 362
129 130 141 184 133 206 197 135 186 191 185 162 188 187 181 199 197 160 193 198 196 205 210 212 219 206 236 241 258 283 317 311 326 393 386 447 353 342 412 403 393 378 360 359
179 137 139 141 202 196 171 192 196 135 191 196 197 192 190 191 191 196 196 199 202 206 213 217 234 244 247 262 229 309 377 374 424 449 391 344 341 405 396 389 372 359 445 479
150 183 164 164 185 189 194 199 199 193 191 192 192 190 193 195 196 208 202 208 213 230 233 247 246 252 298 286 364 348 344 454 447 337 345 402 399 391 382 366 363 502 478 444
183 177 178 192 194 167 193 190 192 190 189 188 190 194 210 191 188 205 205 233 233 246 142 255 255 297 296 365 344 347 353 347 348 419 405 393 385 376 361 434 490 471 439 405
178 197 172 189 189 190 193 188 186 188 196 212 205 199 201 213 218 234 233 237 173 247 252 274 285 373 357 344 340 342 337 424 413 402 391 379 365 363 479 478 459 426 396 429
187 186 183 194 194 193 195 198 201 204 196 186 213 211 220 231 225 235 244 244 266 263 282 291 319 342 349 338 338 338 421 409 400 384 369 361 448 461 462 445 415 388 430 441
189 195 196 198 193 199 195 207 203 214 210 207 219 235 224 232 241 250 282 276 274 273 316 362 350 351 357 334 423 417 407 393 376 360 392 462 444 448 428 413 388 420 447 481
202 200 200 204 208 203 206 200 205 217 227 232 227 225 271 239 263 265 265 279 308 359 350 340 435 432 337 423 413 401 382 363 375 462 449 435 444 418 410 382 415 447 474 521
149 208 203 198 193 201 215 226 228 225 236 258 272 260 257 270 265 265 279 350 366 339 386 451 429 429 418 408 391 368 358 455 439 442 432 459 415 397 395 426 446 489 536 389
202 206 212 217 222 228 226 227 254 273 267 267 270 262 255 259 273 281 341 359 341 435 446 431 424 412 403 379 360 419 442 442 435 456 470 406 399 420 377 457 471 523 423 382

GFSNGP_2pvu_pres_015.txt.gz
Presure
204 184 192 195 192 175 179 189 183 183 179 98 172 171 177 165 185 167 166 161 166 171 186 190 188 189 182 189 192 194 182 182 180 181 147 186 193 191 206 213 239 238 220 142
192 193 192 193 191 175 177 177 176 175 181 189 187 170 170 177 180 165 175 168 174 172 172 171 173 162 181 181 180 176 178 193 125 183 193 169 203 210 216 241 193 124 135 239
198 199 195 181 182 181 181 182 172 177 167 189 184 179 179 183 189 192 181 176 167 166 164 164 183 182 186 192 195 190 130 151 171 193 193 202 228 190 213 129 123 166 226 217
199 195 192 185 188 185 183 181 179 168 172 176 167 163 181 185 186 188 192 184 164 167 175 176 185 188 192 183 128 137 196 193 195 196 202 199 227 127 126 137 239 213 205 204
207 197 188 195 195 186 186 186 183 181 178 177 179 175 171 170 169 169 170 172 178 183 186 187 188 137 129 135 188 201 200 197 193 230 142 154 137 127 217 246 206 209 196 193
212 201 199 198 190 187 186 191 188 183 185 183 185 183 181 181 181 182 181 183 187 189 192 176 193 192 140 209 200 190 195 203 129 135 230 139 234 134 227 179 211 204 193 197
317 224 207 203 198 192 194 189 189 188 188 188 187 187 188 187 189 191 193 194 197 124 129 198 124 210 205 190 189 197 199 158 231 125 172 206 254 209 170 208 200 194 194 205
215 249 295 225 209 202 196 197 195 194 193 195 196 196 197 139 202 202 156 240 203 206 208 192 211 186 193 193 202 150 138 152 210 251 241 211 216 213 203 131 197 205 208 214
227 204 215 292 282 266 254 151 255 258 254 153 177 249 252 249 247 231 225 152 224 218 212 194 199 194 202 234 190 142 223 240 176 206 229 214 158 200 187 201 207 210 214 220
236 240 241 244 244 245 245 240 192 160 209 233 212 230 234 214 229 148 221 203 184 197 188 195 187 240 237 231 137 245 165 209 223 213 203 199 186 194 206 204 206 217 225 241
188 202 210 216 189 227 151 228 228 227 216 223 165 183 164 173 206 153 199 131 174 199 236 235 233 235 194 132 187 207 226 209 204 208 206 188 205 205 205 210 219 233 256 304
195 198 201 189 187 188 186 193 196 205 175 127 196 192 192 198 198 198 222 235 236 235 233 229 204 139 188 209 220 209 205 202 205 192 196 201 211 212 213 219 247 284 299 358
229 232 201 200 202 202 199 198 198 196 232 197 200 229 235 235 236 233 235 228 225 225 151 136 208 203 214 202 207 201 203 183 203 205 203 215 210 217 228 258 298 279 465 457
225 224 228 229 225 230 232 237 239 164 229 232 234 234 234 232 231 229 234 248 239 156 146 210 207 202 202 201 199 185 198 201 202 213 208 219 221 248 284 295 286 366 344 447
222 223 223 179 225 232 226 224 223 224 232 228 228 231 235 242 253 244 207 184 207 214 204 202 200 195 198 202 189 200 196 207 207 216 214 232 259 298 283 318 433 459 444 427
235 241 226 235 238 242 237 236 249 246 255 253 249 160 259 141 219 173 216 202 195 194 195 184 172 202 203 202 198 202 208 205 208 223 236 273 296 281 331 325 400 437 419 393
250 144 244 247 253 218 228 256 266 236 234 243 134 137 199 202 197 198 195 192 194 192 190 195 189 200 203 199 204 211 215 209 225 255 287 289 311 328 448 325 432 408 379 474
269 217 255 252 254 265 265 254 127 131 143 138 180 199 193 192 196 195 190 189 193 200 184 198 202 204 200 206 213 204 219 232 263 285 290 321 329 335 452 428 400 376 463 455
267 256 207 199 188 157 133 138 137 133 141 149 191 181 198 192 187 186 187 183 173 184 181 203 204 201 211 210 208 222 258 273 300 310 328 352 474 314 423 393 423 463 465 467
195 174 168 131 130 134 199 134 182 184 191 189 194 194 184 185 194 184 171 187 201 206 204 204 206 212 207 216 245 276 289 303 312 350 341 330 442 418 384 414 462 470 458 435
200 190 190 186 189 175 200 194 194 199 196 191 190 186 196 194 171 177 201 206 201 203 204 214 212 217 242 256 294 295 303 316 322 331 467 448 417 379 500 458 460 450 446 404
199 155 121 152 147 187 194 190 187 189 192 193 191 180 172 192 205 206 210 199 202 208 209 216 235 261 289 288 302 312 317 336 436 334 447 415 375 495 454 498 490 464 406 427
192 125 128 185 188 196 198 195 194 194 193 197 200 207 207 201 203 211 202 216 217 211 236 272 289 286 287 304 307 341 319 438 463 445 414 373 476 432 499 481 451 411 415 453
192 194 192 197 198 191 190 191 195 200 202 207 203 199 204 213 210 205 215 202 253 265 275 280 279 290 303 305 341 322 440 454 443 415 366 483 402 493 479 457 405 421 454 437
194 192 190 190 191 188 199 204 210 199 193 207 213 215 208 201 219 251 257 271 273 276 275 282 289 302 311 335 334 466 463 436 412 359 475 412 488 472 445 416 440 458 480 358
197 199 185 180 208 208 203 202 202 206 209 210 172 194 226 269 270 265 180 270 269 274 282 283 302 319 341 331 471 455 430 403 353 462 420 463 461 433 431 427 447 523 400 329
206 204 208 208 196 119 199 213 214 216 220 231 262 269 267 263 268 269 263 266 278 278 278 297 329 342 348 473 444 422 390 350 421 408 461 450 433 453 355 377 502 592 338 300

GFSNGP_2pvu_pres_018.txt.gz
Presure
231 201 241 228 208 141 196 195 187 182 175 175 179 187 173 183 185 171 173 179 173 167 186 171 170 172 160 160 183 162 167 170 172 175 185 189 197 191 147 165 212 203 207 222
220 262 233 214 198 195 167 103 186 188 181 192 172 182 177 175 176 186 179 186 179 181 177 179 180 173 173 170 170 170 170 172 172 182 195 193 135 136 210 196 203 210 196 248
255 228 214 203 203 187 187 188 184 176 177 179 179 177 179 177 180 182 177 173 176 178 181 186 191 194 193 195 192 182 170 180 192 194 171 153 207 232 196 209 209 134 178 172
278 221 211 203 195 194 172 175 173 185 175 172 178 183 185 179 181 180 181 180 179 182 187 183 181 180 178 175 172 179 190 193 162 132 226 220 223 210 206 234 131 127 175 246
225 203 194 199 187 190 189 186 186 188 176 159 177 179 180 175 174 177 175 175 174 175 176 176 179 179 183 187 190 193 201 234 224 229 234 208 210 205 135 139 242 215 225 207
226 194 193 202 192 189 185 185 185 188 186 184 184 178 180 179 180 179 176 177 177 181 181 183 186 186 190 194 156 196 128 238 201 221 203 203 222 135 149 238 217 221 202 213
233 207 194 200 194 185 190 188 187 186 186 187 188 186 187 186 186 188 188 185 183 186 190 191 175 161 200 223 245 242 235 223 219 202 220 136 142 240 227 216 215 214 201 212
272 231 203 197 194 190 187 186 183 183 182 180 182 185 187 187 184 189 186 183 189 195 197 201 205 233 246 237 234 224 222 204 203 181 139 135 234 214 209 209 212 211 207 203
304 315 328 205 200 196 190 189 186 187 188 186 190 191 187 190 156 193 196 198 203 202 196 242 241 235 148 145 217 202 199 240 238 137 134 211 217 208 211 213 207 203 206 217
200 259 282 272 282 226 206 202 201 199 198 157 196 196 196 197 184 202 198 202 137 163 189 219 222 143 217 202 209 240 223 150 247 205 200 209 209 211 198 208 204 211 218 217
241 227 207 224 278 269 267 264 264 234 231 229 228 227 169 252 246 238 180 232 195 172 207 219 209 202 219 239 147 178 200 238 202 208 201 200 202 125 209 206 217 210 226 245
229 232 238 239 240 233 243 243 242 241 241 241 236 235 232 139 224 221 220 222 214 208 202 202 244 241 175 170 274 242 204 171 206 206 200 200 208 206 207 216 209 227 269 303
189 188 189 190 218 221 224 226 223 221 221 220 218 217 214 213 211 228 202 202 202 241 241 234 150 238 272 237 207 206 204 202 199 198 208 201 212 212 212 220 228 286 317 351
202 194 192 191 192 194 194 193 198 199 192 192 193 193 195 199 209 234 238 240 235 230 211 252 249 228 207 206 201 201 195 196 189 195 202 214 215 216 226 266 294 338 379 459
232 232 230 229 216 232 234 217 217 218 231 236 236 237 238 238 235 234 240 257 140 194 266 184 206 204 201 184 196 191 185 207 185 212 212 218 225 240 282 315 322 346 367 439
221 223 228 230 226 225 225 227 212 230 230 234 233 235 239 241 227 134 133 142 199 206 203 200 194 195 197 195 186 177 197 216 208 214 217 226 267 305 326 330 464 432 437 413
228 223 226 228 228 230 233 244 248 247 245 252 262 270 157 127 138 136 150 207 202 200 195 195 196 188 188 195 180 183 217 204 216 224 236 281 306 326 329 325 466 437 405 474
235 237 237 239 249 235 235 249 252 261 249 272 133 134 135 133 138 183 173 199 193 183 178 190 188 184 203 195 211 210 211 222 252 272 292 301 309 321 349 407 441 403 471 498
271 239 296 168 229 277 282 251 265 224 135 135 129 130 146 178 197 192 191 193 180 195 190 193 198 181 200 209 222 218 241 267 277 293 296 309 342 433 470 444 401 458 511 512
305 310 306 323 236 219 203 192 141 125 132 201 194 195 193 190 193 195 194 192 189 199 199 208 211 208 217 208 216 263 276 277 285 297 306 358 477 473 445 399 480 500 500 459
194 197 194 192 194 201 193 183 179 195 140 132 200 200 196 192 189 183 197 198 197 207 212 209 210 221 205 239 276 274 283 284 291 300 344 443 472 444 397 415 434 502 472 421
163 172 190 194 198 152 182 168 121 155 193 189 186 182 185 198 197 192 195 207 215 204 207 215 224 243 273 277 270 282 281 287 298 348 430 467 441 392 409 426 500 481 423 439
194 190 191 198 198 197 196 195 155 190 191 192 187 189 198 196 191 207 194 208 205 217 228 242 225 274 276 282 268 282 285 298 355 479 460 436 390 422 392 491 470 420 430 452
197 194 191 191 193 196 134 200 202 203 200 198 196 192 203 210 185 206 201 221 227 236 247 265 277 279 276 268 279 290 296 354 481 456 426 388 437 383 487 462 437 439 472 396
197 196 196 195 193 192 190 185 180 193 196 185 198 207 218 218 220 222 227 228 244 260 273 279 275 271 279 281 291 300 359 476 448 417 383 435 383 480 459 445 464 465 465 342
197 196 194 196 186 192 198 200 201 200 204 210 209 213 217 223 229 228 239 259 269 276 276 274 277 281 280 289 301 357 468 441 410 416 424 377 474 459 457 423 459 497 358 322
200 200 200 197 194 196 199 199 200 210 209 212 218 224 228 232 236 258 265 274 275 272 272 196 278 279 290 299 354 460 435 426 448 415 429 474 464 446 356 350 552 391 326 307

GFSNGP_2pvu_pres_021.txt.gz
Presure
247 245 238 249 206 230 222 216 234 187 192 187 186 176 169 181 182 205 185 189 195 189 183 180 183 182 177 177 179 176 172 176 177 190 194 195 195 192 184 197 205 155 142 233
232 250 242 253 239 185 239 229 232 204 194 187 179 171 170 165 173 192 171 187 189 188 183 177 173 173 185 179 182 179 181 188 192 188 180 174 189 194 199 212 138 145 233 182
225 202 247 236 264 216 259 143 217 192 186 180 171 163 162 180 179 179 180 175 178 179 178 178 179 178 179 177 176 177 181 172 173 185 192 192 198 203 240 204 232 222 209 236
149 238 242 212 225 253 251 228 205 193 182 170 172 170 168 185 180 176 182 182 178 175 178 183 180 170 169 171 172 175 180 185 190 192 194 200 211 192 142 227 213 212 244 170
199 259 216 211 235 286 234 206 178 179 180 177 180 184 181 181 180 180 183 184 158 177 170 175 177 173 174 178 183 185 187 191 194 201 207 252 239 234 223 208 240 170 145 136
258 199 224 233 267 230 192 189 178 172 178 181 179 177 177 175 174 172 171 175 175 177 178 178 178 183 184 184 164 188 193 138 203 207 246 233 226 211 223 205 167 139 136 206
221 242 221 284 228 201 195 184 188 173 177 184 179 180 180 181 181 180 180 180 180 181 182 187 183 185 187 190 191 188 202 200 249 202 140 218 224 241 148 205 217 203 215 192
253 249 269 244 199 200 194 187 186 186 187 185 181 182 181 181 180 182 185 187 185 182 181 186 189 192 191 184 190 197 226 203 134 219 206 189 187 224 265 213 213 210 188 199
252 250 262 237 199 195 196 196 187 187 183 184 186 185 186 184 134 182 181 187 189 190 192 191 158 128 201 133 238 254 237 225 205 235 154 224 266 229 216 210 193 193 201 201
313 261 247 237 198 209 186 190 191 192 191 188 141 188 188 188 188 188 189 180 192 158 147 193 205 249 191 235 239 226 205 203 247 237 252 265 216 206 205 190 189 203 225 216
203 271 273 278 280 233 207 205 198 191 191 190 190 190 160 160 189 136 157 126 171 202 242 220 236 232 245 220 190 177 243 240 242 267 222 207 209 194 187 186 200 221 222 242
234 199 197 240 277 275 276 269 268 226 201 201 201 201 201 201 201 202 227 246 241 236 234 231 226 203 203 142 228 185 223 258 224 205 205 182 192 181 200 207 218 230 268 294
232 239 243 242 205 202 236 244 242 241 244 245 247 244 245 242 236 231 233 232 231 225 220 202 204 143 143 210 251 250 215 204 202 182 186 187 186 210 207 169 224 280 291 282
196 193 187 222 223 231 231 232 232 239 236 231 230 232 232 230 229 222 219 204 201 214 248 138 134 135 225 239 209 204 202 182 179 193 179 200 210 212 217 250 283 281 292 322
191 191 194 192 192 193 194 194 193 194 196 198 200 184 202 201 203 223 242 245 247 245 133 133 137 238 205 205 201 190 180 184 192 195 211 212 221 232 280 287 278 296 316 488
225 224 201 199 199 199 199 199 199 200 201 229 230 238 237 239 239 247 254 157 133 135 136 245 203 204 196 191 185 183 187 192 209 204 212 231 254 282 278 285 285 307 482 451
225 228 227 229 228 227 226 233 237 235 235 237 239 242 249 163 257 267 134 134 133 183 206 201 189 183 193 194 181 190 203 217 207 216 235 267 283 277 279 279 304 479 448 416
222 223 225 227 233 237 237 236 242 239 218 239 258 256 258 268 144 161 134 134 202 189 185 187 194 189 181 190 197 198 210 213 227 242 277 285 281 278 291 307 479 450 409 442
224 227 234 235 239 246 251 256 256 234 268 266 274 232 123 132 148 158 192 198 200 198 193 189 182 194 198 187 208 201 209 231 259 280 285 280 282 290 306 478 447 398 454 513
232 231 246 259 300 314 300 313 317 320 224 199 126 133 121 188 127 194 197 192 191 189 180 186 194 195 214 205 212 230 235 269 285 284 280 279 291 308 453 444 401 459 498 495
256 266 288 294 261 238 213 202 199 194 199 203 202 199 131 191 193 193 190 187 191 198 193 196 217 212 214 191 232 243 270 281 286 283 281 291 308 462 443 419 460 402 487 442
280 161 162 161 164 168 191 183 186 196 200 199 197 195 127 192 195 192 196 203 199 200 191 210 210 220 233 230 254 279 284 287 285 286 291 308 439 442 473 436 479 482 472 444
171 186 194 198 199 199 197 192 194 199 199 195 193 183 196 198 197 200 201 201 209 207 206 215 223 232 237 257 281 285 283 279 288 290 305 469 442 461 425 447 475 461 450 450
201 200 197 197 197 196 197 199 195 193 192 195 197 196 196 184 197 202 203 202 214 219 221 225 236 244 259 280 279 279 280 288 289 302 468 442 446 416 430 475 459 466 481 367
201 196 135 146 198 194 196 197 190 193 192 194 194 201 202 197 197 201 209 221 221 221 229 237 249 155 276 277 279 289 292 294 432 451 443 433 496 502 482 462 462 479 403 340
197 180 196 197 184 173 175 187 199 191 192 201 205 197 190 194 202 213 219 221 224 232 238 254 268 270 279 280 292 300 310 496 466 441 431 519 496 484 449 373 478 443 343 314
197 200 196 194 201 201 195 190 186 193 205 204 200 195 206 213 212 219 223 227 234 241 258 274 280 287 286 300 334 351 494 466 440 436 474 486 478 425 353 470 596 349 319 302

GFSNGP_2pvu_pres_024.txt.gz
Presure
248 164 240 233 256 243 254 267 250 266 164 195 122 231 228 218 194 189 181 173 179 189 197 202 203 192 193 193 186 186 185 175 178 185 176 175 188 175 176 185 192 194 200 205
240 236 231 233 245 255 242 267 284 206 230 180 231 222 223 191 186 181 170 176 181 195 196 190 188 196 192 187 188 187 186 182 186 186 188 174 176 183 190 187 192 203 137 258
233 225 235 232 232 231 255 237 189 232 218 193 226 227 196 187 181 175 176 172 183 189 198 186 175 185 176 181 180 182 185 167 171 174 177 183 188 187 191 194 202 224 241 237
235 234 227 236 201 248 206 237 259 217 200 237 229 215 185 178 174 175 181 165 169 184 185 181 180 182 181 179 180 162 173 180 179 182 185 184 175 191 179 195 246 219 152 215
161 249 209 234 229 185 241 257 234 219 242 227 188 181 179 175 171 170 168 171 182 183 180 184 182 183 185 179 173 178 177 183 184 182 189 191 148 127 202 243 133 215 253 252
181 219 213 253 247 232 265 250 215 236 233 185 178 177 174 170 169 171 172 177 175 183 183 181 180 176 178 181 180 183 180 182 184 191 193 197 179 246 229 229 218 242 148 151
228 258 224 207 218 241 208 240 238 233 205 176 174 170 169 173 176 178 186 181 176 176 175 180 184 182 181 185 177 183 186 192 193 176 195 212 237 241 214 252 140 224 239 210
225 223 241 251 247 208 243 261 249 218 182 179 178 178 181 180 178 179 180 175 179 182 182 181 183 182 173 189 169 187 193 194 188 205 244 225 217 253 246 243 246 208 197 201
255 252 223 233 208 210 249 242 182 182 178 183 183 180 178 181 185 182 182 181 181 184 185 182 182 173 188 193 193 196 191 197 247 226 226 216 139 259 251 200 215 192 200 192
240 241 242 255 255 267 227 201 192 189 186 187 185 183 184 185 185 177 185 183 180 139 133 138 187 192 190 201 195 213 247 235 225 205 229 253 255 211 212 190 196 197 201 217
239 271 259 247 248 246 258 201 196 191 187 183 182 181 181 180 180 181 148 190 191 191 191 189 198 202 199 231 249 231 221 179 194 243 257 224 214 200 189 201 194 211 218 219
208 267 267 276 281 289 274 221 194 190 190 191 191 191 191 191 189 186 189 191 197 202 204 198 247 249 241 228 212 161 134 133 252 236 210 197 190 193 198 200 213 214 239 290
249 200 201 204 270 280 285 284 257 212 203 202 202 203 205 207 206 204 202 267 251 257 246 239 232 223 208 221 136 132 138 245 206 190 195 187 194 196 197 210 232 241 292 290
235 234 240 140 250 219 214 213 249 262 257 259 259 261 261 246 245 246 236 235 234 229 217 206 232 250 136 135 134 234 206 189 193 194 186 196 198 197 211 232 285 290 282 288
195 195 195 199 203 212 218 224 230 232 232 232 232 232 233 213 228 213 212 204 213 238 248 253 201 134 128 172 207 199 190 196 186 191 201 193 216 233 233 276 286 283 282 291
193 195 199 198 194 191 192 195 197 198 203 206 204 203 203 203 203 232 243 240 246 254 263 134 129 133 210 206 190 200 187 187 195 192 195 215 229 237 281 288 286 280 288 299
202 202 202 201 232 231 231 232 234 234 234 234 235 235 238 245 241 241 244 264 255 252 133 131 176 209 189 199 176 191 198 182 194 201 212 233 237 289 289 285 291 292 299 461
229 227 228 225 223 226 228 228 229 228 233 237 239 241 216 257 261 259 272 226 124 138 156 201 186 196 194 191 195 196 190 205 210 222 235 242 290 280 289 297 301 305 460 470
221 223 225 223 224 224 230 236 235 245 263 300 303 261 343 349 327 231 192 133 179 181 196 196 197 196 193 184 194 199 207 221 221 232 248 282 284 293 303 305 460 460 457 424
221 222 225 225 224 227 232 240 260 296 276 278 274 266 215 205 186 126 198 203 151 194 183 196 194 193 183 194 205 209 214 223 235 250 280 281 290 303 315 484 414 439 462 460
227 225 225 226 233 230 246 277 276 250 222 213 208 202 191 191 203 201 199 196 136 193 195 191 184 192 198 199 213 206 228 240 250 278 288 296 306 335 442 400 433 550 463 489
226 234 231 233 247 227 161 161 164 169 183 200 197 191 194 197 199 195 191 194 193 191 186 190 208 195 200 218 211 233 237 248 276 286 289 330 349 487 460 432 522 498 482 450
234 240 250 269 273 169 193 198 196 196 198 201 198 196 199 198 194 194 190 190 187 192 200 207 193 207 220 216 229 238 250 276 272 329 335 352 486 458 431 509 491 475 477 436
167 175 258 225 204 187 194 200 201 198 200 201 201 195 194 167 183 189 194 191 193 202 202 204 213 209 223 229 238 266 274 278 333 317 345 487 457 431 503 485 463 468 491 367
238 217 208 201 200 198 201 204 147 202 197 198 193 181 182 190 198 197 192 193 205 206 214 217 206 223 237 241 271 277 303 330 309 349 487 457 432 501 484 450 478 494 372 334
210 206 205 206 206 205 203 200 197 192 190 185 187 194 200 201 197 194 200 206 216 197 216 211 223 239 260 276 280 303 326 330 348 487 461 435 482 493 428 357 525 375 336 309
207 200 191 188 186 187 188 189 192 195 198 198 198 195 193 196 214 214 212 210 208 202 227 226 241 268 277 284 296 317 342 351 488 461 435 399 491 411 350 601 379 337 310 299

GFSNGP_2pvu_pres_027.txt.gz
Presure
238 224 202 255 262 253 262 262 269 257 136 279 270 282 278 268 245 220 234 225 212 193 188 183 193 184 175 178 192 206 204 206 207 192 190 189 185 184 180 168 180 185 184 190
232 242 145 226 253 267 247 249 269 258 266 261 259 254 267 261 225 209 227 222 207 189 183 190 181 174 180 189 204 202 193 194 192 186 196 182 181 162 178 184 185 183 190 165
223 236 232 234 240 240 258 247 262 263 261 260 254 272 239 229 217 218 224 220 198 184 182 179 171 178 180 203 197 190 191 189 178 183 182 179 177 182 184 164 177 149 185 199
219 224 232 241 252 245 256 252 231 253 270 250 193 191 230 219 216 228 223 216 185 187 174 173 173 176 188 198 195 177 183 187 184 179 178 177 185 182 190 164 186 195 202 224
227 197 231 233 234 226 235 232 239 223 255 296 237 222 218 201 226 225 214 187 184 177 173 170 175 185 172 182 183 188 185 183 179 182 183 182 187 190 186 193 200 201 246 231
234 240 231 233 229 224 188 233 248 240 249 237 221 216 213 229 222 192 187 182 180 175 171 179 176 181 185 179 184 182 178 183 182 183 182 156 146 190 195 188 217 255 209 151
176 233 226 135 238 246 238 235 246 241 233 208 195 223 223 219 191 188 179 176 171 168 172 171 173 183 184 180 181 183 183 187 160 187 191 183 198 194 201 249 233 144 260 261
247 237 214 243 157 236 237 255 250 244 213 207 209 231 229 189 181 177 177 174 173 172 172 183 183 182 183 185 185 185 174 190 190 183 196 197 199 234 172 143 198 260 233 196
226 185 222 256 252 257 243 245 244 220 211 211 246 189 185 180 179 176 178 172 179 181 181 181 183 184 184 172 128 191 189 180 196 197 186 247 241 132 163 151 266 204 200 192
227 199 204 186 233 211 250 237 210 210 243 220 230 170 169 176 177 177 180 182 181 182 182 184 185 170 136 190 186 189 198 199 186 245 240 178 136 141 178 220 194 200 186 201
229 228 232 238 226 213 220 216 221 239 233 265 206 182 182 181 181 180 180 180 182 157 141 188 191 186 186 191 201 196 186 248 237 219 135 137 188 223 194 204 194 190 202 202
274 249 252 250 246 243 250 240 262 255 223 210 184 182 184 186 186 183 174 183 190 190 183 186 191 197 199 191 232 242 232 219 254 133 139 142 199 200 200 186 204 200 211 216
207 262 263 269 277 299 289 249 248 220 200 193 192 192 192 191 190 186 181 187 189 190 198 199 198 203 241 236 212 207 270 134 136 137 201 203 199 195 200 201 209 224 227 257
245 235 210 200 201 218 262 275 279 279 275 201 196 194 193 192 192 193 195 197 202 203 213 243 237 228 217 216 259 247 132 135 152 205 198 199 195 201 202 204 220 227 262 294
223 227 230 231 231 232 234 215 196 219 244 245 246 243 233 229 229 247 244 240 236 237 215 207 202 244 257 265 281 134 136 204 198 189 202 199 197 202 204 220 232 272 297 313
190 189 195 204 205 206 207 211 212 214 217 221 222 223 223 222 220 199 202 198 203 209 240 249 243 255 158 148 134 170 199 192 202 200 196 198 201 211 221 233 288 295 308 328
194 193 190 191 191 190 190 200 197 194 191 190 192 196 228 236 239 244 248 248 246 249 254 261 126 148 134 138 188 191 197 202 198 196 205 202 216 224 244 289 291 304 299 382
205 204 204 205 209 222 228 228 229 227 230 230 229 231 236 267 319 318 324 326 329 317 134 181 196 193 189 195 198 200 198 195 199 211 197 219 228 256 290 288 304 290 493 471
221 222 226 226 225 225 227 224 227 222 224 229 238 248 283 273 275 240 251 234 216 169 199 198 200 202 198 194 194 196 195 200 217 208 220 231 263 284 291 305 338 491 470 526
223 223 221 219 221 222 226 221 226 222 233 231 245 285 273 241 227 215 207 203 197 189 199 201 199 192 196 192 196 192 204 210 216 218 235 262 287 289 321 338 489 470 507 510
230 225 225 226 228 223 225 226 225 231 233 243 284 269 222 212 209 206 197 189 191 195 199 198 195 188 195 196 193 204 208 217 224 239 258 289 285 310 355 492 467 433 500 485
247 230 244 248 232 231 230 232 226 233 245 237 162 164 170 203 198 197 199 201 199 202 195 182 193 197 196 203 204 218 214 225 243 263 283 287 325 321 414 468 419 494 478 466
273 188 269 279 260 240 222 227 239 160 160 164 192 193 198 200 200 201 202 201 195 181 189 191 199 198 203 217 220 216 228 241 264 283 287 321 334 447 472 420 502 458 487 407
301 294 297 294 289 265 253 181 191 255 223 207 195 202 202 203 204 201 191 198 190 197 198 198 193 213 211 221 218 234 247 277 283 282 301 282 421 477 425 503 449 578 425 355
165 195 220 160 181 220 267 252 224 213 193 204 202 202 206 204 198 186 187 197 201 198 194 205 207 215 221 224 233 247 276 283 288 296 319 431 477 424 502 441 401 492 361 325
209 210 213 210 214 214 213 213 210 208 207 207 204 194 185 189 192 198 199 196 197 200 207 213 223 221 221 238 268 278 286 290 300 334 495 473 427 420 514 361 546 366 328 310
205 203 206 209 211 212 211 210 210 208 198 191 192 196 196 197 203 205 196 199 204 210 217 220 226 232 268 277 279 286 283 305 339 490 468 429 436 562 358 441 373 331 311 297

GFSNGP_2pvu_pres_030.txt.gz
Presure
245 251 249 241 252 264 272 311 418 435 378 332 321 312 313 313 294 280 299 265 263 264 276 224 228 224 206 196 185 174 175 185 180 178 176 197 209 204 198 191 183 183 184 182
232 145 252 253 259 251 271 281 285 355 336 330 321 312 308 314 316 275 255 260 267 279 235 213 234 211 199 186 183 181 188 183 179 177 191 205 191 193 189 185 186 183 182 187
240 220 233 229 247 239 261 269 269 275 285 276 271 275 273 261 262 261 256 278 292 250 222 232 226 202 190 182 182 187 180 177 176 186 203 195 185 184 189 184 182 187 178 173
224 242 232 234 241 231 241 244 257 258 249 258 253 262 269 271 260 261 265 281 243 222 224 227 208 196 187 181 183 183 176 174 179 187 189 184 188 183 182 186 186 134 188 193
247 220 230 184 229 233 235 253 237 252 252 241 242 210 240 255 260 266 255 227 218 227 226 212 200 188 181 182 181 174 172 176 180 173 176 183 182 185 183 174 192 190 198 202
223 223 225 232 232 229 238 240 243 230 245 239 223 245 256 258 262 251 218 206 232 225 216 202 185 182 178 173 171 171 177 176 170 176 183 177 184 188 190 189 193 205 199 139
247 236 233 211 181 231 228 242 234 239 229 250 236 257 245 249 219 212 196 230 224 219 208 187 185 180 176 173 172 178 172 175 181 176 184 187 182 193 192 200 201 181 256 142
232 183 217 234 214 236 238 239 237 212 236 237 241 241 236 205 192 209 223 224 219 201 189 185 179 178 172 168 172 170 180 180 183 186 185 193 190 197 202 199 198 235 142 173
219 222 213 219 232 247 235 222 231 198 232 227 249 198 205 208 225 222 223 215 191 188 179 174 171 165 171 175 179 180 183 132 187 192 190 189 203 196 223 241 163 148 166 212
214 205 238 197 193 243 233 251 234 226 241 249 187 193 210 219 228 225 188 188 180 176 176 176 179 181 178 121 182 185 188 192 187 189 201 199 217 229 212 139 145 208 210 199
268 219 204 238 222 222 222 184 226 234 222 231 205 211 234 227 221 179 175 178 179 176 178 180 181 151 182 186 187 193 184 192 201 200 210 242 134 139 145 157 216 197 198 203
244 224 231 231 225 226 221 224 215 213 214 225 215 244 221 178 181 182 181 181 183 183 182 182 185 183 191 192 188 192 201 200 206 241 208 135 140 145 201 197 194 204 202 210
278 233 274 274 281 300 235 236 242 225 253 241 246 244 241 195 182 182 184 173 183 187 191 193 191 189 193 197 201 204 201 241 229 200 128 147 145 187 190 202 205 206 214 205
200 199 206 258 245 250 265 266 271 276 244 232 236 232 191 191 191 191 191 190 189 190 193 197 198 202 206 202 212 241 220 208 251 243 134 186 189 192 191 200 205 203 219 228
235 205 191 209 195 197 210 226 241 241 245 246 255 256 227 199 199 198 198 197 198 201 206 207 206 221 243 230 200 239 241 275 172 198 187 194 196 172 202 206 212 219 232 296
208 209 211 214 219 220 221 224 228 228 222 199 224 229 231 233 233 233 233 233 232 238 240 237 200 196 242 226 219 293 180 201 196 201 198 168 198 203 203 215 215 249 306 303
200 198 198 198 198 199 201 205 204 204 205 207 206 204 205 205 203 199 195 193 192 196 294 297 291 284 124 227 199 202 196 182 201 191 194 199 204 200 217 226 256 295 300 305
199 197 196 195 197 196 196 192 191 191 191 202 224 231 205 231 232 237 283 282 267 247 250 248 242 227 212 201 193 198 198 197 193 195 203 204 201 217 235 261 296 302 305 340
213 199 200 204 211 222 222 227 227 227 229 228 227 230 226 233 232 254 281 260 247 239 228 218 206 203 192 191 193 198 200 195 193 204 203 214 221 240 278 295 299 302 343 474
226 225 225 225 225 225 225 224 224 226 223 230 222 229 226 233 241 262 274 236 225 216 208 203 196 193 194 198 201 200 193 199 204 205 216 226 244 290 297 301 300 310 472 516
223 222 221 219 219 221 222 222 224 226 230 226 227 227 224 237 247 275 251 214 162 206 199 195 198 203 201 204 196 194 208 203 214 230 228 247 289 291 299 305 304 467 519 481
237 238 239 238 237 238 243 246 249 245 241 234 230 224 230 241 220 160 169 202 198 199 200 199 204 205 194 193 194 206 200 214 236 232 241 291 297 296 306 337 460 517 471 489
218 221 226 231 236 253 214 191 254 256 258 262 262 230 160 161 169 217 193 200 187 201 203 208 200 190 194 188 210 208 214 232 234 253 285 292 299 307 454 462 505 479 582 400
207 210 215 225 232 248 298 298 304 302 294 284 265 172 244 242 214 191 202 201 199 207 206 198 188 203 201 206 216 212 229 241 286 290 295 306 306 317 469 513 491 626 446 356
208 158 204 204 151 151 151 165 258 260 268 265 254 220 214 210 205 205 205 208 206 199 195 201 196 213 199 220 211 235 256 290 294 300 307 317 395 471 514 567 374 504 361 332
208 211 211 211 211 212 212 212 189 200 212 210 208 207 207 208 208 209 209 204 205 209 198 187 211 206 221 223 241 274 294 298 297 302 356 438 481 463 569 451 353 369 338 312
202 204 207 208 206 207 207 207 205 206 207 209 209 209 208 207 206 208 209 193 205 202 214 208 217 223 237 256 259 295 297 291 310 348 502 493 459 567 590 347 383 345 317 298

GFSNGP_2pvu_pres_033.txt.gz
Presure
258 241 247 250 248 249 258 305 319 399 429 403 400 348 348 360 358 251 233 236 213 215 206 230 240 242 252 267 225 215 227 223 213 196 187 185 187 177 181 179 178 190 204 195
236 91 91 246 244 237 259 273 301 329 344 335 327 329 330 336 334 180 251 231 222 211 227 212 244 248 260 273 222 215 227 215 198 190 188 181 172 183 184 174 182 198 194 185
235 221 234 229 234 257 256 259 268 282 289 297 310 315 310 305 259 320 284 245 247 233 245 248 252 256 268 251 212 221 221 210 195 187 184 180 180 183 174 178 188 181 183 185
231 225 238 175 246 237 238 249 244 258 271 259 278 291 293 300 293 281 262 259 257 260 268 276 258 205 269 214 210 225 215 200 189 183 182 181 177 175 175 181 173 182 183 164
222 226 233 250 243 229 234 235 230 238 244 252 262 265 257 255 255 256 254 256 268 262 259 286 258 264 219 209 228 215 202 192 182 176 185 185 175 174 183 180 184 176 185 190
209 221 218 216 228 226 230 221 228 236 242 229 232 241 262 258 252 249 242 256 266 280 272 269 272 216 207 230 212 202 196 185 181 185 175 172 174 184 180 185 180 188 188 191
232 227 224 200 224 230 223 223 222 224 229 235 209 249 160 248 248 256 264 250 255 261 252 237 212 222 227 213 201 191 181 176 175 176 173 180 175 129 183 185 189 189 196 204
218 225 222 230 238 235 206 226 222 219 225 222 238 205 245 246 238 248 254 246 238 216 207 223 225 219 210 200 183 180 183 178 179 173 175 151 183 184 189 190 191 202 209 225
195 218 233 241 232 240 231 239 227 211 219 236 234 225 235 234 246 218 205 200 193 220 227 222 214 208 205 183 186 183 180 174 174 181 182 186 187 188 192 190 207 143 254 233
235 222 218 170 216 250 237 232 229 226 233 222 220 237 221 195 193 194 209 215 220 223 219 214 206 190 191 182 177 179 139 181 185 188 184 188 192 184 204 209 232 245 233 210
248 207 195 199 239 232 208 244 242 231 227 227 206 194 203 211 212 208 214 219 218 217 201 190 185 185 182 178 176 180 189 187 187 190 192 188 200 210 217 216 211 153 223 199
246 243 224 215 219 232 234 223 219 210 213 238 219 194 197 208 223 236 220 224 214 185 184 184 183 184 182 185 188 188 192 192 189 193 205 209 204 247 245 165 248 199 205 200
203 230 232 244 279 261 254 213 240 214 214 217 218 227 235 229 217 241 243 173 173 174 179 183 188 186 184 193 194 189 193 201 207 207 214 202 242 292 259 212 211 202 191 201
275 267 262 244 239 252 259 258 244 254 235 257 244 239 234 230 230 232 232 191 189 189 188 192 194 194 191 196 200 201 208 209 153 242 268 219 236 209 209 202 192 159 205 207
199 223 223 226 251 243 235 248 258 260 261 262 260 250 231 227 224 212 192 191 190 190 192 196 201 201 197 209 209 260 305 178 282 266 251 235 207 204 177 197 196 202 205 219
230 230 195 212 214 211 215 225 218 204 210 214 217 239 240 237 234 230 229 228 226 225 226 233 242 276 282 220 212 255 222 245 238 224 200 170 196 183 197 203 208 213 200 277
206 208 214 210 211 212 213 213 214 213 212 212 212 212 211 214 215 215 213 212 211 205 199 194 232 266 247 241 242 235 224 214 201 193 154 183 199 201 204 209 212 230 309 309
203 206 209 199 199 198 195 191 192 193 195 193 191 191 191 191 192 199 204 228 231 236 264 278 259 250 239 229 218 210 203 199 194 192 203 201 186 206 212 216 204 310 314 314
195 195 195 199 198 199 195 195 202 220 222 229 226 225 226 226 229 224 229 224 232 232 263 269 242 228 218 211 205 199 194 194 194 205 193 205 208 219 224 256 308 314 312 315
206 203 202 201 201 217 225 224 223 224 224 225 222 223 222 221 226 224 225 227 226 239 257 260 206 216 209 200 196 198 197 200 206 201 211 217 217 238 271 312 313 314 364 528
226 229 227 226 225 223 222 220 222 224 226 227 227 231 234 232 235 233 226 223 228 244 166 170 220 198 200 201 201 194 203 200 204 207 220 224 246 303 310 310 316 554 483 498
222 222 223 223 224 227 232 237 241 242 247 251 253 255 256 258 261 261 259 259 162 165 236 223 198 194 202 200 194 207 194 206 217 217 234 266 304 299 307 345 549 450 519 659
231 234 237 240 237 229 232 229 228 231 238 192 255 301 310 298 298 294 268 263 235 225 220 209 202 204 198 208 197 203 212 211 226 239 283 301 290 327 355 514 488 593 611 425
228 230 231 224 218 212 212 217 218 194 217 224 198 273 283 274 171 172 229 220 216 213 211 207 207 208 208 210 214 205 222 234 246 296 291 288 329 401 492 471 625 427 452 378
218 214 215 206 210 211 207 212 211 207 156 214 215 215 180 173 208 213 210 206 207 209 210 209 205 208 210 204 216 234 233 256 288 282 292 346 378 491 465 574 623 361 380 343
203 207 209 209 209 177 178 188 210 211 183 208 207 195 203 203 205 206 206 207 207 201 183 211 206 205 219 233 232 236 266 281 295 285 333 361 491 520 521 637 363 385 351 316
205 202 202 203 199 199 202 204 206 208 209 209 207 208 210 209 208 208 209 206 205 205 201 206 206 227 228 232 246 275 285 295 301 319 349 510 563 575 623 515 349 356 321 299

GFSNGP_2pvu_pres_036.txt.gz
Presure
245 228 252 235 254 239 249 258 283 305 317 396 398 374 371 363 360 412 233 277 272 267 257 245 222 224 215 225 232 230 239 241 256 236 219 216 218 224 218 206 197 193 187 186
248 239 225 243 228 236 243 250 266 283 300 310 342 353 359 382 388 396 251 268 261 261 247 235 212 224 220 215 211 233 235 242 258 238 221 214 222 225 217 204 198 186 184 179
240 246 241 230 230 222 235 238 256 256 280 295 298 309 325 338 157 376 248 236 205 250 233 228 223 226 201 214 223 234 237 241 255 237 218 213 225 222 214 201 188 184 180 182
240 217 236 224 224 227 230 239 243 250 252 275 286 280 290 300 310 329 262 236 231 226 213 207 221 205 226 211 224 234 245 248 259 231 214 218 223 214 203 189 183 180 184 190
239 227 216 225 217 218 222 235 239 237 248 253 264 275 272 271 272 285 308 170 230 224 225 217 232 218 222 220 239 244 251 254 260 215 207 225 215 206 191 183 181 187 171 177
220 213 215 224 211 220 235 224 231 221 248 238 245 254 254 242 236 254 267 249 242 232 234 228 226 228 239 253 249 252 256 260 213 202 224 217 207 193 182 182 165 179 178 182
236 228 223 219 217 224 215 226 168 226 219 247 237 241 253 242 228 243 251 244 256 255 248 239 197 284 282 250 252 261 257 206 210 224 214 205 192 180 175 181 178 180 180 183
221 219 216 219 209 217 172 217 174 224 219 229 234 237 236 244 248 254 249 253 255 272 271 264 261 257 257 254 249 209 208 225 216 209 201 183 182 185 183 178 182 187 181 189
215 224 220 229 222 231 219 217 217 220 221 229 229 228 232 238 234 236 239 237 237 239 239 239 237 234 213 206 219 225 219 211 206 186 183 187 182 178 183 187 180 188 190 165
232 208 200 232 225 234 201 227 229 224 224 221 224 228 233 223 221 220 214 210 204 202 197 194 216 223 223 219 215 211 210 204 191 185 179 180 184 184 180 191 190 193 199 209
239 255 215 235 197 217 172 223 225 227 238 223 219 229 222 215 209 203 200 210 212 216 223 219 219 217 216 213 212 211 195 182 181 176 183 181 189 189 190 194 167 206 221 253
224 233 237 229 249 255 252 289 244 241 234 228 220 205 206 208 212 208 208 213 222 220 216 216 219 216 212 205 190 191 189 184 183 184 192 188 193 197 204 205 220 254 262 248
232 239 211 215 212 248 213 228 221 217 218 215 218 241 199 207 213 215 225 227 228 224 221 182 183 180 180 182 183 183 188 193 190 190 199 198 123 204 275 264 254 243 226 146
233 228 260 274 253 245 231 227 243 235 217 243 218 229 234 238 230 231 228 220 222 222 222 220 191 189 188 191 191 189 191 198 198 196 206 241 261 251 245 236 216 219 171 206
234 264 259 247 230 233 257 263 263 261 269 250 250 237 231 229 223 222 221 221 219 216 216 199 195 192 193 196 198 201 208 244 266 234 228 246 238 231 217 194 199 203 191 200
261 245 244 240 249 206 190 192 205 203 238 248 246 245 241 235 235 235 233 231 225 224 222 221 222 230 219 251 250 218 249 245 241 241 236 228 220 207 205 164 205 205 215 214
191 238 233 226 219 220 216 221 216 214 216 213 210 209 209 209 209 209 209 209 210 209 202 199 200 234 239 249 274 261 247 235 231 223 214 211 204 202 201 205 203 217 220 243
219 224 222 212 219 214 212 211 205 200 193 189 193 193 194 193 193 205 203 203 230 230 232 232 230 230 230 247 269 250 235 220 219 212 207 204 203 204 207 216 216 228 306 318
212 216 206 208 202 214 201 198 197 195 193 193 193 209 223 224 224 226 227 229 226 231 230 229 228 227 229 218 258 245 233 222 204 201 203 203 200 220 216 215 248 303 317 328
198 203 208 198 194 193 199 197 226 197 218 225 225 224 223 225 228 233 237 241 246 250 253 249 249 274 242 241 241 237 219 196 201 203 202 219 216 213 235 290 314 307 323 536
195 200 200 199 202 206 230 222 216 225 225 223 230 236 240 242 250 261 270 276 278 276 274 277 264 259 250 228 216 219 213 210 211 208 214 212 226 248 291 309 321 318 532 500
216 216 234 225 224 229 227 224 225 226 232 235 228 229 229 233 226 274 294 306 311 302 279 254 239 196 216 216 213 210 210 177 211 212 212 237 278 295 303 313 373 534 600 692
225 232 229 227 223 220 226 232 237 235 230 223 219 218 213 206 209 201 220 219 218 197 215 215 212 201 207 207 208 175 194 213 216 229 239 284 296 306 310 415 536 598 682 480
230 231 228 223 226 233 235 230 223 213 205 205 213 207 163 153 204 211 214 214 215 212 197 203 205 205 202 210 187 212 209 235 229 255 290 292 293 330 539 669 514 665 492 392
199 211 230 231 233 228 215 217 211 204 202 203 208 211 209 209 210 209 205 202 198 200 206 209 211 210 213 199 209 211 236 235 271 291 287 291 330 562 677 621 647 487 394 350
226 231 223 208 215 217 214 212 209 208 209 208 209 207 206 206 207 207 205 208 210 209 179 212 210 199 208 206 236 236 266 276 287 299 297 329 560 612 610 634 582 368 353 319
217 213 215 219 203 195 195 201 203 202 204 204 203 202 204 203 199 194 194 193 196 205 207 206 208 220 229 238 249 266 275 286 284 296 322 325 606 613 626 492 364 353 317 304

GFSNGP_2pvu_pres_039.txt.gz
Presure
212 217 243 259 239 234 228 246 240 245 291 293 310 330 347 382 358 352 364 397 407 303 228 202 289 244 156 139 236 235 233 211 214 226 238 236 239 238 248 246 232 222 214 214
215 257 228 239 228 229 246 247 251 241 277 285 292 314 344 371 390 312 385 406 315 280 259 286 267 248 241 236 227 232 212 205 209 190 233 228 236 234 245 250 234 222 213 213
195 157 243 228 227 228 230 229 247 237 266 265 272 287 321 353 389 400 401 263 280 253 279 270 253 246 237 236 217 225 210 218 220 209 216 228 233 235 244 251 239 221 214 213
198 235 229 220 220 223 219 236 251 244 255 256 264 268 286 340 374 394 297 270 280 276 264 253 248 245 245 225 220 204 207 190 215 221 220 229 233 234 244 250 241 220 211 223
188 217 226 218 217 225 229 224 236 240 236 242 249 254 255 294 272 255 249 276 270 260 252 247 240 165 231 224 184 218 221 213 206 214 223 230 239 245 253 249 225 213 229 225
247 226 219 216 209 222 227 221 238 227 234 238 223 244 229 246 262 241 236 236 246 236 178 239 229 187 191 215 213 213 216 211 215 229 234 240 252 253 249 221 206 225 223 218
213 216 215 219 218 212 221 211 224 229 222 235 233 210 231 246 248 230 224 225 228 226 222 222 219 216 212 215 218 227 222 227 253 254 251 256 246 233 206 204 222 218 215 204
239 241 223 215 221 229 214 219 212 218 225 229 230 240 236 238 246 244 252 255 224 229 229 226 226 226 227 171 213 273 286 260 259 254 245 226 206 204 216 220 216 211 187 190
158 222 230 221 214 226 214 221 217 219 233 221 238 226 235 241 235 238 242 246 252 261 283 276 274 276 275 264 252 249 244 236 227 212 204 207 220 173 211 200 187 188 183 183
218 205 220 218 222 228 240 223 229 257 222 235 220 227 223 227 227 225 226 228 249 235 234 235 234 233 232 226 217 211 205 205 209 219 220 219 216 212 190 182 183 183 184 192
256 224 231 238 231 244 232 240 223 248 204 226 223 219 220 211 211 211 211 211 212 212 210 207 211 211 220 220 221 221 220 219 217 214 212 198 182 183 184 185 188 192 134 199
223 223 211 202 239 242 223 280 282 243 253 241 221 202 202 202 193 201 201 213 220 218 219 216 214 216 217 219 220 186 179 214 192 183 183 184 186 190 191 193 197 201 202 232
240 242 232 240 222 235 211 259 233 255 233 231 230 203 198 195 199 207 216 224 224 223 221 221 221 220 217 185 213 211 211 201 188 188 190 192 192 197 201 202 248 261 251 249
221 249 239 211 220 268 246 213 240 213 213 213 213 215 223 251 244 225 230 219 218 221 223 220 218 215 215 213 212 207 214 196 196 196 203 220 257 263 256 249 247 241 237 220
246 235 231 241 244 245 240 257 262 266 253 245 258 242 242 238 235 233 228 222 221 220 219 218 217 214 215 216 214 217 220 238 232 239 242 261 252 245 242 237 222 225 218 202
242 218 231 257 238 238 222 242 242 213 215 258 252 249 255 245 242 235 232 228 229 227 226 223 221 218 214 208 200 200 205 232 232 256 261 252 189 234 233 227 179 149 212 208
192 234 252 231 239 201 202 200 197 233 227 222 223 219 212 211 207 205 205 204 196 194 195 195 197 232 233 237 232 230 230 234 233 256 260 249 242 227 227 181 213 213 226 220
226 228 226 216 225 226 212 222 217 211 212 207 203 198 191 200 196 194 196 209 228 231 231 232 232 235 231 236 248 260 258 216 263 252 235 226 216 217 216 210 180 219 230 267
258 231 236 230 208 217 217 210 207 215 203 197 194 193 194 196 209 225 226 227 233 243 256 270 274 276 277 275 276 224 265 247 190 220 216 214 217 216 219 150 171 251 311 325
225 218 210 211 209 212 210 205 192 193 194 197 216 209 216 228 225 231 240 240 248 250 278 302 314 316 308 295 250 229 220 217 212 206 163 211 215 217 215 276 300 297 317 434
206 203 215 218 213 198 200 207 199 198 202 220 224 220 224 225 233 232 231 229 227 225 222 222 221 219 217 216 214 210 202 205 201 212 214 210 217 234 279 296 301 317 473 535
202 201 198 199 198 197 203 202 211 221 226 230 225 222 228 235 225 221 215 205 202 212 190 209 212 212 210 206 203 203 211 214 214 180 212 237 264 284 290 309 343 680 508 683
202 203 203 202 205 211 226 228 231 227 222 217 223 234 231 224 219 215 180 179 198 210 211 212 207 207 203 203 212 210 207 212 213 230 243 270 280 289 304 341 674 634 669 614
219 221 222 225 225 225 228 228 224 217 216 229 232 224 218 208 206 207 208 210 213 210 209 209 210 206 201 210 204 196 206 223 234 262 269 283 286 301 328 622 621 660 504 396
227 224 181 223 227 229 227 229 226 221 228 229 219 217 153 166 205 206 207 213 211 207 205 204 205 193 203 160 208 218 223 235 235 265 278 281 297 322 635 643 656 441 383 346
227 225 224 224 224 227 233 237 236 235 234 228 216 217 213 210 210 209 209 209 206 204 209 184 204 205 209 207 217 226 232 232 268 273 289 287 296 295 641 360 369 373 335 314
215 216 224 233 221 223 224 223 223 213 208 213 214 209 207 207 198 201 202 209 210 203 202 206 206 214 212 219 225 233 234 268 278 292 294 295 318 609 385 364 359 327 309 300

GFSNGP_2pvu_pres_045.txt.gz
Presure
246 239 229 216 220 210 219 245 239 251 243 249 257 279 208 246 350 414 377 370 261 386 371 383 363 347 335 276 328 321 323 313 319 165 227 221 212 212 211 214 228 217 228 226
205 221 216 216 218 238 245 228 232 250 244 244 250 252 256 271 271 85 452 398 371 347 361 340 334 332 333 326 295 313 318 335 317 282 226 216 212 213 215 221 218 226 217 214
210 215 218 230 245 235 241 166 226 240 235 235 220 254 244 217 281 268 289 312 391 375 389 376 366 344 332 345 347 335 311 295 276 254 224 216 216 214 217 221 222 224 213 199
239 225 233 237 242 240 188 223 223 216 228 225 237 241 239 242 260 250 281 247 269 289 288 286 286 285 285 284 281 277 272 263 252 244 236 228 222 219 224 224 225 215 216 214
216 221 243 244 232 227 215 223 229 224 221 228 233 238 239 210 232 249 259 264 265 267 269 264 264 269 268 265 262 259 254 249 245 240 232 228 227 226 223 218 202 208 224 219
224 228 248 236 231 221 227 226 220 217 232 226 226 244 241 235 236 233 237 243 246 246 245 238 239 241 243 239 238 237 236 232 233 229 225 224 221 216 212 194 207 220 209 235
213 238 246 239 223 227 214 228 229 225 238 222 243 236 247 246 241 236 259 227 230 233 233 236 237 234 233 188 230 228 223 222 223 224 228 221 217 203 219 233 238 241 243 244
220 242 245 238 219 216 225 217 228 219 233 220 228 240 252 248 235 229 238 248 229 230 239 247 244 240 232 230 234 236 241 226 202 210 225 212 228 233 232 235 235 224 209 204
224 236 229 227 205 226 222 212 226 219 231 225 228 238 241 175 252 237 236 237 236 226 224 236 227 230 226 224 210 212 220 225 228 236 237 226 231 233 244 203 199 212 213 213
246 241 191 208 226 210 224 238 225 241 284 222 226 164 237 235 246 249 245 246 239 255 260 239 229 230 231 240 238 241 242 240 239 235 221 206 198 202 210 212 209 182 184 209
241 248 241 229 230 221 230 241 210 227 250 256 208 203 208 200 210 202 200 198 208 225 221 227 250 233 231 227 204 204 203 202 202 203 210 213 213 217 221 222 219 207 218 231
231 251 240 214 226 231 226 225 236 236 257 240 218 210 196 198 193 196 203 207 213 214 215 215 215 214 213 214 213 213 213 214 217 219 221 221 220 220 216 212 226 234 236 246
247 249 223 224 221 220 222 234 234 247 237 236 233 211 207 207 207 210 213 213 213 214 216 215 217 219 216 211 211 219 219 218 217 208 202 201 224 228 235 234 232 265 275 239
259 251 223 219 220 223 237 228 216 224 239 213 213 211 211 210 212 238 241 234 230 228 226 225 229 222 225 218 209 201 199 205 226 233 235 240 243 259 278 300 266 227 196 215
213 253 212 211 230 228 246 215 248 245 245 264 272 239 246 243 240 241 240 228 235 238 218 207 200 198 203 211 219 225 235 261 297 314 325 327 278 231 222 219 187 210 205 213
251 251 231 218 217 225 259 228 241 238 237 260 259 211 201 217 244 248 227 214 195 188 196 206 195 216 223 225 238 242 234 236 229 221 221 221 216 214 205 204 201 212 208 202
263 261 233 231 240 237 234 236 241 241 240 231 198 194 221 218 214 207 201 197 193 195 205 201 219 222 229 232 232 225 220 223 218 210 204 214 214 209 207 202 208 216 229 194
257 245 224 231 232 240 224 233 241 196 244 221 211 221 221 200 207 193 196 197 206 211 212 211 219 222 232 228 224 214 200 203 192 198 198 178 211 206 211 212 224 230 237 238
245 214 208 232 249 223 230 228 247 230 218 230 215 191 201 200 200 200 198 207 201 214 216 219 217 228 232 224 215 209 215 207 200 214 213 211 206 209 212 225 193 233 249 313
247 236 218 229 238 225 202 248 242 237 232 216 210 199 199 199 200 204 205 204 231 228 223 219 221 241 234 222 217 215 206 210 211 214 208 214 204 207 224 235 233 261 287 321
247 193 204 253 220 231 246 266 248 233 210 218 197 203 200 196 201 219 200 206 219 223 222 216 232 236 231 223 208 212 210 215 209 202 214 191 213 222 226 213 221 258 287 322
200 206 239 222 213 245 211 237 238 210 208 204 206 203 201 203 213 210 228 227 230 224 216 222 229 233 229 218 214 215 217 206 204 215 194 213 221 230 226 241 279 284 305 318
255 213 230 229 245 242 216 227 219 218 226 210 206 203 204 206 211 218 223 226 230 223 225 218 178 160 201 221 224 216 210 210 210 205 216 218 222 225 235 257 272 290 312 365
234 232 239 242 244 194 160 210 208 211 212 211 205 208 212 225 220 218 223 228 226 223 234 235 235 230 227 222 215 214 214 193 214 217 222 211 221 234 277 278 281 279 317 399
242 221 216 226 224 214 214 213 212 211 211 212 176 218 223 223 222 221 222 224 220 236 237 230 229 228 216 214 215 218 192 218 218 215 209 223 236 248 275 277 292 312 320 391
227 227 230 229 224 219 218 218 221 222 217 216 222 225 223 222 224 190 224 224 227 236 228 222 220 219 219 218 212 202 217 209 204 222 228 236 260 273 258 275 269 305 433 380
218 214 224 238 225 227 229 226 223 224 223 226 223 223 224 222 218 216 216 220 219 215 212 212 199 199 209 214 217 210 205 214 229 233 240 271 266 247 289 289 308 437 416 368

GFSNGP_2pvu_pres_048.txt.gz
Presure
236 235 231 223 226 254 248 239 235 226 220 238 250 250 238 254 263 281 281 319 439 389 371 393 395 399 404 351 336 322 328 320 336 132 263 151 158 252 207 228 231 227 229 228
227 277 262 250 234 225 218 212 232 260 262 253 251 247 254 248 81 265 282 293 309 406 363 351 356 366 377 414 345 333 328 317 306 169 290 293 181 291 214 209 220 220 215 211
246 229 217 211 211 215 241 247 226 237 225 231 237 234 252 246 232 243 257 248 281 295 352 345 334 328 325 319 314 305 296 293 291 291 286 287 289 305 282 212 209 211 205 208
208 209 208 212 218 241 245 236 229 215 229 224 234 225 238 250 228 252 252 254 257 260 279 289 296 310 316 319 317 311 309 312 314 306 297 283 274 257 242 217 213 208 209 212
210 208 228 239 216 246 238 234 227 226 223 222 245 229 241 249 223 236 247 238 259 261 262 253 262 267 271 273 274 274 272 268 266 262 254 248 240 235 222 220 217 213 218 222
234 222 222 222 248 237 233 225 231 236 239 232 230 217 237 244 242 240 234 243 237 243 246 248 249 252 253 251 248 237 239 239 235 233 227 227 227 226 225 225 226 232 231 224
229 225 249 247 243 239 228 224 221 228 222 227 229 224 224 249 256 224 240 239 227 236 238 234 233 236 238 236 236 230 232 232 229 231 230 231 232 235 238 235 229 224 206 214
219 220 237 244 242 235 228 227 218 230 224 233 243 217 233 252 246 236 231 227 228 226 250 244 242 244 245 235 236 240 232 235 234 233 225 233 238 231 229 213 215 237 243 242
222 222 243 236 241 239 224 225 232 226 225 236 272 229 234 234 245 243 238 243 255 239 230 227 210 226 222 229 227 225 221 217 217 210 216 223 248 240 240 234 219 222 209 199
222 221 242 245 230 233 219 232 220 244 249 264 231 224 238 220 211 236 236 259 242 259 247 237 242 240 243 239 244 243 247 248 250 247 233 221 221 218 215 200 192 221 219 217
223 221 248 243 194 230 227 228 228 250 188 264 251 236 203 212 207 212 212 214 215 215 215 227 244 244 241 221 219 219 217 213 210 209 208 207 206 220 214 210 214 225 232 234
214 225 214 246 244 235 205 237 228 234 237 263 255 232 218 197 192 196 202 209 214 215 217 219 218 219 220 221 219 218 217 217 221 220 213 210 221 229 231 237 244 252 273 307
208 223 217 250 247 226 219 217 236 228 232 258 246 232 211 211 212 215 216 217 231 239 242 242 228 217 218 222 226 223 202 194 193 222 226 233 242 322 338 226 212 213 215 213
211 222 224 248 236 218 229 224 238 235 244 226 250 227 217 214 212 212 228 236 239 231 232 232 225 201 197 189 192 223 224 227 237 242 232 227 220 212 214 205 208 213 212 207
222 221 230 231 250 234 231 220 247 231 222 242 229 266 267 243 250 247 238 237 235 227 208 195 191 190 213 206 226 222 235 236 230 226 218 208 209 200 200 212 213 209 207 211
224 224 224 231 249 242 221 239 231 242 240 239 243 250 264 211 207 252 250 228 205 203 195 194 215 205 215 222 223 223 236 229 227 221 207 199 193 203 213 214 204 212 204 203
183 233 232 259 255 254 216 236 227 240 220 245 239 232 212 234 225 206 219 217 202 194 198 201 204 218 224 220 222 219 238 231 222 215 214 215 202 212 212 210 211 217 209 229
223 233 247 259 251 242 234 227 224 230 224 247 245 190 216 211 218 210 191 197 209 201 203 210 203 222 227 224 221 227 240 235 228 221 214 211 213 216 205 210 214 218 233 193
241 258 264 257 262 236 232 224 245 236 228 226 238 220 206 215 223 194 203 202 202 199 218 202 208 217 223 225 217 228 235 231 228 219 206 217 223 213 205 217 215 220 219 238
232 205 208 265 256 218 223 232 233 220 223 200 241 229 226 211 212 207 202 200 204 202 205 205 232 231 226 224 217 226 228 234 236 226 215 225 216 205 222 217 216 224 246 221
245 271 242 257 211 224 219 218 247 200 242 261 243 230 228 214 201 205 209 200 201 205 210 216 225 228 229 227 228 223 233 236 163 224 215 216 206 217 214 213 230 238 271 278
271 268 251 249 254 214 236 192 201 231 212 255 246 235 223 204 209 203 204 205 207 211 218 217 218 228 225 223 239 239 234 234 198 224 213 212 215 215 205 226 233 273 276 279
253 248 229 243 246 216 193 219 218 244 240 206 207 208 205 232 204 209 211 207 208 220 219 221 221 222 223 222 234 238 231 222 211 206 210 217 216 219 230 232 256 270 248 289
235 228 233 231 246 213 211 216 225 245 239 232 231 226 208 210 213 214 215 208 216 222 225 223 226 222 224 220 225 217 214 196 215 216 222 221 227 233 239 264 275 273 281 293
272 264 273 270 261 251 231 231 234 233 244 242 233 213 211 211 211 214 214 215 220 218 223 215 220 216 215 217 210 206 213 216 223 222 218 226 239 232 266 267 276 282 268 314
227 225 225 225 224 223 219 216 215 215 215 216 215 215 216 216 216 216 217 220 209 199 218 219 214 209 207 205 212 223 226 220 215 233 232 235 246 260 263 274 269 276 305 327
236 199 223 223 227 227 229 229 228 226 226 227 226 225 226 227 224 224 222 217 212 206 210 214 210 218 218 218 217 218 223 230 230 233 243 255 264 269 268 271 279 281 313 406

GFSNGP_2pvu_pres_051.txt.gz
Presure
274 266 267 272 270 268 265 256 258 244 241 231 244 244 240 233 251 269 267 257 254 254 311 384 374 368 373 385 393 367 368 361 359 350 287 278 279 280 281 286 159 141 259 233
255 254 248 246 246 248 241 230 226 263 245 237 230 219 221 261 236 267 110 245 255 282 296 341 348 152 364 389 394 383 348 333 323 335 335 331 349 361 325 291 280 151 246 272
248 245 232 230 225 239 266 249 234 224 216 224 236 239 239 243 238 262 237 238 255 271 275 313 321 324 324 326 331 363 345 337 332 328 325 322 308 291 281 279 288 287 199 245
221 259 274 274 246 231 219 215 213 232 242 219 238 238 221 233 248 249 230 235 239 249 264 273 287 302 317 313 304 292 288 287 270 293 291 288 282 277 270 275 270 274 263 264
248 229 221 215 211 206 215 216 240 233 233 230 230 221 239 227 251 247 237 230 235 236 242 262 256 266 266 268 277 281 285 284 276 281 283 278 271 262 253 244 240 249 243 234
213 211 209 203 224 218 242 236 230 234 229 227 242 231 228 232 247 253 237 236 243 231 246 249 252 259 254 257 262 254 254 257 256 244 244 241 234 235 237 237 226 231 236 237
213 213 221 222 212 228 243 229 233 234 221 223 239 227 261 232 249 250 242 215 228 235 242 244 231 247 235 240 247 217 248 243 235 248 250 233 235 226 246 237 239 249 223 228
219 223 225 217 243 249 187 235 232 224 222 208 224 236 309 232 236 255 240 239 238 248 229 233 221 224 235 230 229 239 235 224 230 228 226 220 220 223 221 222 219 222 222 220
224 217 219 217 249 245 243 235 234 217 231 234 236 269 240 234 226 240 239 246 245 250 257 224 230 226 230 231 228 224 223 221 217 218 218 221 220 225 229 245 254 238 226 216
231 219 214 224 245 246 235 238 238 232 224 233 252 258 249 224 214 208 203 210 212 240 235 258 265 266 261 249 240 235 231 235 231 229 225 214 212 215 219 219 218 223 231 237
222 224 225 221 245 237 161 235 235 229 229 240 254 259 211 203 206 213 204 203 206 215 222 224 227 225 221 220 221 222 221 220 219 216 215 211 208 207 226 233 236 242 237 220
230 219 201 221 245 241 236 232 223 235 227 234 256 245 231 234 202 196 201 210 218 216 217 219 216 215 220 223 223 222 219 206 204 203 216 226 235 244 249 235 219 211 212 206
217 221 217 223 219 246 239 245 235 214 225 236 241 249 266 225 216 214 222 232 244 233 235 238 234 231 228 203 202 199 192 229 225 231 238 237 233 225 221 215 208 204 195 205
228 219 220 212 226 229 250 244 216 217 234 254 229 232 260 226 215 214 214 228 239 241 227 227 226 203 192 198 203 216 220 225 223 228 236 233 225 222 215 209 206 193 201 213
221 216 220 221 219 230 239 239 225 218 236 243 211 240 234 262 265 244 245 192 238 237 248 233 202 192 195 196 206 226 223 225 224 221 242 237 227 219 212 212 214 206 212 222
211 216 217 223 219 225 228 241 253 242 217 235 231 249 242 242 270 267 193 246 242 246 209 199 200 195 195 211 209 224 226 225 221 220 237 236 232 229 224 215 209 221 230 215
216 217 222 222 226 226 233 236 252 210 217 222 237 249 235 233 240 244 195 184 198 207 218 220 194 200 213 204 208 217 225 226 221 221 226 234 237 236 236 230 232 214 215 215
215 217 222 222 222 231 226 234 250 234 242 227 232 229 242 236 233 213 209 218 211 208 193 202 200 196 203 205 216 229 232 229 224 224 231 231 238 238 235 228 215 214 216 215
233 227 226 223 229 233 230 243 269 246 249 225 256 215 239 242 196 220 196 202 193 211 208 201 202 204 205 232 217 220 224 231 228 228 247 221 233 222 217 213 217 219 222 236
232 231 233 224 234 235 241 257 257 253 235 226 233 229 224 244 238 233 225 211 214 216 201 209 204 205 207 217 222 222 222 226 229 228 231 231 217 210 207 212 173 228 218 245
249 246 245 247 213 243 264 259 267 257 236 224 231 231 194 199 207 235 229 227 205 205 212 210 207 206 208 218 220 221 227 227 226 225 219 214 210 216 220 226 232 228 255 265
280 268 267 253 268 223 258 267 251 212 214 221 229 229 212 234 204 235 232 220 214 209 211 211 210 214 214 218 224 223 221 218 218 216 212 192 222 220 230 230 242 249 261 265
258 259 244 262 245 244 271 238 263 253 240 257 254 193 209 241 245 209 201 208 210 222 211 207 216 207 170 218 218 224 223 178 193 204 220 217 224 228 233 242 259 267 264 278
251 256 238 252 249 259 272 268 249 249 253 246 261 216 203 248 238 233 223 230 213 208 212 205 216 218 217 221 219 216 198 207 224 215 217 231 232 240 246 256 267 270 278 286
257 266 271 268 265 256 236 236 224 231 234 214 213 216 217 219 244 239 233 218 215 215 217 217 217 218 224 198 225 226 220 215 221 225 233 231 239 249 240 265 274 268 282 279
235 248 264 264 262 260 195 229 235 243 273 227 243 228 233 237 237 229 224 218 215 218 222 228 229 228 230 222 213 216 224 223 231 225 234 240 242 247 269 283 269 285 284 273
238 233 228 226 227 231 236 239 232 223 226 230 228 226 230 231 227 229 231 231 229 227 216 224 218 214 219 218 224 219 217 230 224 238 241 247 251 278 272 275 284 285 279 281

GFSNGP_2pvu_pres_054.txt.gz
Presure
258 256 253 254 250 249 251 250 252 247 245 248 247 246 252 256 251 247 246 141 252 264 276 263 258 287 342 362 379 423 412 403 392 393 412 384 397 301 282 283 284 272 267 274
252 249 246 238 239 248 254 253 258 244 253 267 254 248 240 233 245 237 248 247 253 268 252 250 249 274 328 345 342 376 346 338 347 355 351 355 337 350 296 266 262 259 261 254
257 255 253 249 252 251 263 271 263 247 242 237 231 247 241 232 215 246 231 236 266 248 248 235 255 264 316 312 306 303 305 315 320 315 315 323 325 320 324 327 286 266 263 268
270 271 271 266 260 251 247 240 232 228 249 241 231 222 216 246 236 233 229 238 258 245 244 227 244 242 265 291 305 304 302 301 292 294 297 302 309 312 318 314 316 310 290 279
245 248 247 245 235 227 224 257 250 229 219 218 220 223 240 240 240 229 233 260 249 243 243 248 234 229 236 256 270 266 271 270 279 290 287 267 269 262 251 251 242 249 249 240
227 225 228 282 281 258 225 210 211 218 229 246 239 240 233 224 223 258 232 265 238 238 229 245 230 242 235 239 243 240 251 264 262 255 250 257 250 251 251 248 233 240 241 240
286 269 228 218 215 208 216 215 230 218 231 232 237 227 224 223 239 219 247 261 247 237 248 227 233 225 232 231 231 248 235 236 235 231 230 233 241 222 240 250 235 236 229 228
217 214 212 211 224 227 216 238 231 238 232 232 224 213 239 262 307 236 251 267 243 255 244 254 232 233 240 240 237 237 236 237 233 229 223 223 223 219 224 225 222 225 229 231
215 216 219 226 226 222 211 239 241 235 234 220 238 229 242 273 238 231 233 214 211 233 206 262 246 246 247 259 256 231 214 239 237 214 218 220 216 214 207 210 210 208 208 210
221 224 222 213 212 214 242 246 238 238 228 230 231 232 244 234 255 222 202 219 218 219 221 220 223 227 219 220 220 221 222 223 223 223 223 222 220 220 218 218 220 231 237 241
222 217 218 215 220 219 240 244 244 235 224 229 226 228 230 252 259 224 212 200 193 214 214 224 220 215 216 221 227 229 215 202 198 212 217 219 227 234 234 236 234 229 225 223
218 218 227 225 218 217 244 237 236 238 226 230 242 233 195 260 239 202 202 198 211 220 222 225 236 235 233 230 203 202 195 217 214 224 225 224 227 235 231 230 225 221 218 218
223 234 219 221 218 217 222 244 240 234 240 240 219 235 226 254 262 286 221 230 224 205 243 234 227 227 229 206 194 193 204 200 222 224 226 227 224 237 248 236 228 228 222 218
233 236 221 216 211 216 222 225 247 247 246 214 223 235 234 233 241 267 222 215 220 227 236 237 233 230 208 197 194 197 198 200 220 230 232 229 223 223 228 236 237 236 234 233
229 243 225 222 221 222 212 226 234 249 222 212 237 230 225 231 243 220 243 245 242 225 214 243 249 250 201 199 197 198 211 203 211 224 229 228 226 223 226 228 232 238 237 230
227 238 229 223 221 216 206 223 225 226 234 255 220 230 234 225 237 245 255 259 242 198 240 196 216 212 216 221 204 205 194 203 216 227 230 233 231 222 233 238 233 211 227 215
229 224 237 224 213 221 216 221 219 230 228 195 255 237 223 215 247 237 231 236 244 243 232 221 213 209 205 203 199 205 205 210 215 223 222 224 226 224 223 227 226 221 217 214
226 214 214 226 219 210 221 221 225 223 228 229 248 216 220 231 231 242 236 188 219 209 211 216 215 215 210 210 204 205 204 208 213 222 224 221 227 225 223 219 215 214 217 219
241 226 224 214 222 215 221 222 221 224 229 231 226 239 224 225 235 222 240 242 236 224 212 199 204 219 217 212 209 214 211 209 211 220 226 221 219 219 218 213 214 218 218 221
232 225 226 227 225 214 219 227 226 233 228 228 226 257 256 224 226 235 232 242 189 225 207 224 226 221 205 204 211 212 213 212 215 218 220 218 226 220 213 211 209 205 234 249
236 237 237 232 226 227 229 225 229 233 231 237 238 261 252 250 228 234 232 212 194 201 229 233 231 225 212 215 212 214 210 208 189 218 217 223 219 214 188 206 235 237 243 251
301 267 246 241 237 234 233 230 219 232 234 243 247 263 260 251 219 225 230 238 242 252 242 239 232 231 221 214 215 207 214 209 222 217 219 233 214 198 217 234 238 244 250 273
270 281 292 226 262 258 254 248 249 257 239 254 249 267 267 224 208 222 223 222 199 240 252 249 206 212 218 219 219 211 215 219 215 220 232 218 208 224 233 229 243 246 257 289
289 284 252 268 268 270 271 274 273 267 264 245 240 260 239 256 240 251 252 248 231 202 246 247 246 216 216 217 220 217 216 221 226 234 211 238 226 234 236 247 249 248 286 243
268 269 284 282 262 251 272 262 247 253 256 242 255 282 273 245 247 245 245 244 218 217 221 235 235 236 235 235 219 225 226 230 223 210 223 229 230 238 246 244 250 263 290 251
238 248 253 260 269 271 272 274 272 269 270 272 269 247 232 241 228 237 243 274 228 227 226 234 235 233 228 233 230 219 219 215 226 226 245 230 242 244 246 246 254 297 241 259
241 235 234 231 227 230 232 249 250 261 258 252 258 263 262 263 268 277 263 252 240 223 221 222 227 223 218 226 225 229 227 228 229 234 239 240 247 244 243 259 299 239 252 255

GFSNGP_2pvu_pres_057.txt.gz
Presure
268 268 272 275 255 245 255 257 250 246 257 251 249 254 258 258 261 260 265 260 258 261 256 252 255 264 273 232 264 279 323 351 351 363 374 362 356 369 371 375 427 388 371 304
257 248 248 247 260 259 254 255 261 270 271 259 253 254 255 254 246 250 264 255 250 235 237 253 257 266 250 253 256 308 319 316 309 321 323 327 330 319 321 340 342 335 340 334
269 259 261 247 257 258 256 251 251 244 244 246 249 242 247 260 252 246 248 238 240 245 255 246 272 264 250 247 249 258 307 304 305 313 308 316 313 320 297 315 323 316 331 320
254 257 257 255 252 245 239 239 248 245 250 261 256 247 242 238 238 238 223 248 246 245 245 250 262 253 241 246 245 235 253 248 287 294 284 284 285 295 292 297 308 308 297 292
260 255 253 252 248 250 253 262 264 249 241 237 233 230 245 236 222 250 246 245 237 242 238 272 240 239 236 234 238 234 241 234 243 247 273 270 276 263 260 261 261 263 268 270
264 272 278 265 256 251 247 240 237 227 249 246 239 218 223 241 252 240 226 237 243 238 260 251 238 257 235 226 198 236 241 242 240 241 234 241 239 244 239 254 241 239 238 244
244 248 246 240 236 229 224 240 256 238 221 219 214 217 240 248 228 225 255 294 240 250 262 247 244 263 234 242 242 248 237 246 245 243 240 241 243 230 231 229 229 227 226 227
231 227 222 266 279 267 233 217 212 218 226 219 235 241 238 224 227 254 281 237 254 259 256 241 250 229 230 252 259 224 221 221 224 228 226 222 218 217 219 221 224 222 222 218
280 287 243 216 209 216 213 226 218 216 232 233 239 238 233 227 233 249 277 229 212 206 212 222 215 231 233 222 221 222 220 222 229 207 207 223 223 222 220 217 213 211 208 205
217 216 211 213 213 219 221 218 213 235 234 241 236 234 225 230 241 239 271 213 201 222 204 224 228 222 220 219 220 225 230 217 206 223 218 229 227 228 229 233 237 236 233 230
215 213 218 220 223 220 217 217 233 228 241 237 238 230 227 240 229 234 261 210 210 206 193 214 223 226 238 235 237 231 206 204 195 203 207 225 226 226 226 220 230 242 238 230
223 222 223 220 219 215 222 221 228 245 242 240 237 231 229 239 231 232 256 214 208 204 202 220 222 241 235 233 233 218 204 197 201 208 202 207 224 232 229 226 220 225 227 229
218 224 221 214 222 218 216 218 228 237 238 233 225 237 228 225 235 225 236 255 220 223 228 224 212 234 237 239 234 210 204 200 201 204 211 204 220 232 231 232 230 226 234 243
220 224 217 216 230 223 219 217 212 218 242 245 239 249 225 223 238 240 241 260 273 225 219 219 249 247 205 224 221 212 206 203 204 208 202 204 214 223 225 228 230 225 220 220
225 224 223 225 227 220 220 211 214 209 225 248 250 250 215 244 230 230 228 238 254 250 248 241 241 206 245 242 232 213 218 209 204 205 206 202 210 220 224 224 220 225 227 225
227 229 228 228 229 229 224 222 213 218 211 227 230 224 240 243 225 229 228 241 239 246 251 245 243 214 212 201 214 211 210 211 208 209 207 208 207 209 220 225 224 223 231 188
229 231 232 232 225 240 224 220 216 213 219 217 222 227 227 240 216 254 224 222 240 240 227 239 236 230 222 210 219 216 217 216 217 212 215 211 212 213 213 219 219 223 217 217
233 233 234 229 222 228 228 220 221 213 215 215 219 224 225 227 239 248 216 223 228 228 241 237 230 227 221 222 214 214 204 207 209 208 215 210 213 213 207 218 217 217 227 229
242 229 233 227 227 222 227 229 226 210 209 214 221 221 232 227 228 235 252 229 212 232 223 234 239 184 233 219 213 210 210 221 224 214 219 213 171 179 210 219 216 223 230 211
228 238 238 227 231 227 218 214 215 218 220 213 215 222 215 233 223 229 236 251 237 212 233 234 229 224 244 200 223 217 230 233 227 223 224 218 209 212 217 219 221 232 219 211
236 236 234 231 234 236 229 227 226 223 219 213 214 227 225 222 231 231 229 263 258 237 215 229 234 231 215 224 249 241 242 209 233 230 223 213 219 216 216 224 227 220 206 221
297 250 242 237 236 237 233 229 225 225 225 226 220 233 233 220 234 232 240 248 249 261 252 215 225 227 208 204 205 219 246 241 226 215 218 230 225 224 225 226 212 210 226 234
300 326 292 276 247 244 238 237 238 235 155 232 230 231 233 233 237 246 254 236 262 264 211 210 210 215 226 230 235 210 228 247 244 237 232 227 228 231 213 213 219 228 239 247
287 292 307 317 281 288 297 266 252 247 245 242 241 244 248 251 255 249 260 237 253 242 254 240 241 243 246 251 234 214 219 228 237 237 233 231 225 214 219 228 232 243 251 252
268 274 277 285 293 295 265 267 282 281 275 272 270 266 264 266 263 261 252 235 237 275 265 265 241 236 242 259 251 228 228 228 228 221 232 217 222 228 237 236 246 252 259 260
234 239 245 254 264 269 275 282 285 283 265 254 249 250 244 254 243 249 264 257 267 260 234 234 246 228 238 268 241 226 222 216 221 226 230 231 229 237 243 250 255 260 264 294
244 239 237 236 236 233 232 234 240 243 253 260 263 263 261 261 260 254 244 245 249 251 248 251 254 259 228 216 217 218 225 229 232 243 231 240 246 252 256 260 274 277 292 230

GFSNGP_2pvu_pres_060.txt.gz
Presure
273 284 259 259 258 260 266 260 258 254 253 255 249 247 244 246 262 260 261 262 263 261 257 253 257 268 272 267 255 254 248 268 291 271 307 347 351 338 324 322 349 349 344 340
291 284 283 251 255 249 253 256 254 259 259 257 259 249 254 255 253 258 252 250 249 249 269 261 261 259 257 246 257 266 271 263 263 256 247 250 319 320 320 316 310 327 294 291
277 272 270 270 267 242 248 254 254 263 252 247 247 249 258 265 259 254 254 257 256 259 257 255 244 241 128 249 261 255 256 252 244 261 257 245 261 285 286 293 307 301 306 305
272 266 267 264 260 257 258 264 268 256 258 262 257 251 252 252 252 248 246 257 251 242 241 235 249 255 248 268 247 247 237 245 255 239 246 242 249 256 252 263 279 287 296 287
269 267 252 247 248 244 240 248 256 248 241 242 247 245 244 249 259 259 247 249 233 230 229 244 249 266 244 264 238 238 234 252 245 240 246 243 240 240 245 246 252 253 241 241
259 254 259 259 260 254 251 252 246 243 243 244 254 257 250 246 240 243 233 227 243 238 244 242 243 244 266 234 258 233 248 256 249 220 195 216 213 220 226 230 232 235 236 237
272 265 258 255 253 251 245 242 248 258 255 243 239 236 231 243 223 220 226 249 237 237 255 295 245 262 252 248 257 244 245 222 228 232 231 209 211 233 240 240 238 236 230 224
251 255 260 267 265 264 260 251 247 243 233 228 238 227 219 219 216 232 248 234 248 269 240 251 263 262 255 254 262 261 224 225 224 227 208 225 229 229 232 229 231 234 239 237
244 242 243 242 244 245 240 224 223 264 247 215 218 221 205 216 239 246 241 233 251 258 238 225 208 228 222 225 235 229 227 224 229 214 205 197 201 233 233 232 232 228 228 234
237 234 232 225 226 256 277 257 218 213 221 213 218 227 234 244 242 244 226 235 258 245 219 212 219 207 203 232 224 223 232 233 225 205 198 199 214 212 211 210 233 231 228 222
225 239 289 283 249 216 210 215 227 217 214 225 239 232 237 238 238 234 226 244 253 262 210 221 212 198 205 222 228 237 239 234 224 209 199 205 206 212 206 218 228 232 233 234
298 285 219 216 212 216 224 224 218 218 215 213 241 241 238 237 236 229 240 234 242 257 241 213 208 200 212 220 237 237 235 236 233 209 205 206 205 217 209 206 209 220 219 224
226 219 215 212 218 224 222 227 217 223 218 241 241 238 242 242 240 231 230 240 227 247 223 206 224 217 224 217 222 243 196 226 226 214 213 218 210 202 206 202 208 204 211 223
221 217 217 222 221 222 223 227 225 220 216 228 237 238 237 235 245 252 231 233 234 242 248 268 235 221 216 226 255 244 239 209 243 213 216 214 207 210 206 211 209 210 214 210
220 221 221 217 225 223 221 228 219 217 217 211 217 243 245 244 247 224 217 228 233 228 246 237 263 253 241 237 238 236 220 197 216 217 218 217 213 213 210 211 206 211 211 205
224 222 221 217 222 217 215 228 226 215 219 211 214 214 221 236 246 239 236 245 218 234 231 234 236 245 251 248 242 245 241 205 191 217 216 216 224 222 224 221 213 208 209 207
218 225 223 223 220 219 223 219 228 215 218 220 214 216 212 221 223 226 231 228 248 225 264 225 230 234 231 244 230 236 234 215 215 194 205 207 205 212 214 211 221 216 218 218
232 226 224 224 223 223 225 224 216 228 219 221 221 215 211 213 218 216 223 224 226 232 240 249 233 213 228 232 232 238 240 242 239 238 234 220 221 225 224 228 227 220 213 220
234 234 232 228 227 224 229 230 224 223 229 224 222 219 216 212 211 212 222 216 227 225 234 229 244 253 248 219 230 239 231 226 221 222 252 245 243 242 231 227 222 227 233 227
255 251 241 236 237 230 228 233 227 224 222 227 226 225 221 215 214 213 215 212 223 225 226 230 231 241 255 253 227 222 230 236 234 235 204 211 222 211 246 247 248 237 236 218
243 237 238 256 238 242 226 235 231 230 228 223 227 213 215 219 220 216 213 212 226 223 216 230 233 245 240 260 259 258 213 216 219 221 235 237 209 240 241 237 229 241 247 221
264 251 246 238 237 237 238 236 235 231 232 233 228 225 225 226 225 228 228 227 226 229 215 226 237 244 239 251 262 254 239 215 223 232 242 251 246 219 228 229 234 217 225 230
294 296 310 265 249 241 235 236 237 237 236 233 232 234 230 228 230 230 231 234 227 232 231 237 248 243 261 231 247 254 248 237 240 241 241 250 252 244 245 216 223 229 233 239
285 285 294 306 308 326 294 257 248 244 243 242 229 230 235 235 237 238 237 235 236 237 247 261 261 257 253 239 233 265 262 260 248 226 228 253 266 224 218 228 229 230 241 258
269 269 272 277 292 297 302 304 291 287 293 267 261 252 251 251 251 253 254 257 263 263 266 261 261 240 260 244 242 261 257 235 235 223 259 257 227 228 230 235 231 243 263 271
247 247 247 254 262 267 269 274 281 288 293 296 280 278 261 277 270 272 267 263 249 241 244 244 257 245 255 259 260 236 235 233 251 242 229 231 231 234 237 242 252 264 249 224
251 249 247 243 240 237 237 238 238 242 256 259 260 264 266 267 270 272 270 269 268 267 264 260 260 257 255 255 250 235 233 231 235 236 237 236 240 242 251 260 269 240 236 236

GFSNGP_2pvu_pres_066.txt.gz
Presure
275 267 259 264 268 275 276 277 279 283 268 284 291 267 269 276 276 261 249 243 242 243 244 249 253 255 249 242 245 256 258 255 273 277 274 283 283 278 274 266 269 265 271 261
270 285 268 264 260 259 259 266 271 278 285 261 276 289 263 261 259 257 262 259 255 253 257 267 250 248 257 264 263 279 111 273 275 274 280 266 272 268 259 262 263 278 250 233
270 272 266 270 273 262 262 266 264 261 277 273 280 279 281 286 268 262 256 252 248 248 251 257 263 250 254 253 267 266 265 264 265 266 270 261 256 256 257 261 258 249 234 245
286 265 278 276 280 278 281 272 276 269 272 280 270 266 270 270 264 262 260 261 259 258 255 252 253 258 267 264 256 263 262 262 265 260 252 258 248 252 263 246 265 243 222 254
305 269 277 266 258 271 276 275 271 264 261 264 259 248 256 256 249 246 247 248 250 254 252 256 264 261 254 260 260 253 255 253 261 244 252 242 244 269 241 251 225 225 222 206
290 297 265 264 263 287 296 268 268 272 256 252 253 250 250 249 249 248 263 268 262 258 256 252 252 259 254 249 251 256 253 255 248 250 276 251 267 255 261 263 238 218 215 202
279 286 296 288 271 278 282 262 263 256 257 254 252 254 255 254 254 251 249 249 249 257 259 256 254 250 248 247 245 250 265 255 281 280 255 268 264 269 278 230 239 202 210 202
272 275 282 269 270 261 262 269 255 246 249 252 261 256 251 256 255 254 256 254 251 251 248 247 240 241 242 243 240 255 266 251 255 266 263 265 260 232 234 229 238 218 215 207
280 264 273 267 261 265 262 260 257 258 254 253 257 250 254 247 240 243 246 247 250 247 238 240 234 243 243 245 254 245 256 250 250 233 233 234 223 232 233 237 244 230 214 212
261 275 259 264 269 259 256 247 253 256 255 248 243 245 245 244 246 249 251 246 233 240 221 228 227 248 244 252 248 246 238 214 214 215 200 224 223 222 235 238 237 237 225 219
259 254 266 271 260 264 260 257 258 258 256 249 246 256 260 235 254 244 232 229 222 217 231 247 251 250 243 233 263 271 239 212 222 210 197 210 217 212 220 235 239 197 227 225
255 249 251 251 260 269 268 265 267 261 254 254 252 247 258 255 235 226 216 217 225 226 234 247 252 240 242 230 257 282 265 218 213 210 209 217 221 222 234 243 240 190 241 212
263 251 248 245 244 247 250 254 260 260 262 262 264 255 235 226 215 211 213 231 235 238 236 244 239 242 233 245 243 274 241 235 215 206 232 228 224 212 247 239 236 233 242 216
269 263 248 249 244 244 249 248 247 230 228 238 241 221 211 222 221 222 234 235 238 237 239 239 237 245 233 240 235 238 244 253 258 251 247 238 226 241 242 244 245 245 230 220
279 270 262 255 252 245 239 226 230 247 272 211 215 230 222 221 220 224 234 235 237 238 235 244 248 205 230 240 258 260 247 234 231 246 237 235 239 238 238 237 237 238 239 240
337 271 274 252 251 234 224 262 285 231 214 214 221 224 224 218 224 222 226 223 222 242 243 243 244 238 235 234 237 237 234 237 240 244 250 254 256 261 250 217 229 235 237 237
335 275 271 246 245 230 277 294 216 218 215 218 230 220 224 226 224 221 221 219 216 217 218 220 224 221 218 219 228 225 225 224 221 230 232 231 228 235 248 244 261 264 255 250
355 275 257 242 262 270 281 226 224 215 219 224 224 224 222 227 230 229 221 221 219 221 220 218 213 215 217 217 220 219 218 217 220 224 219 229 229 224 236 248 255 248 266 265
273 272 250 243 287 263 237 226 224 224 223 226 220 221 224 220 217 219 223 226 224 220 219 220 222 220 219 217 214 217 216 221 214 223 226 227 225 217 226 242 266 261 242 253
263 267 247 243 250 230 236 215 222 226 225 223 223 221 221 222 223 221 224 225 224 226 228 228 226 226 226 227 227 226 223 216 222 227 232 224 230 237 236 248 275 263 262 244
261 262 247 236 237 238 224 229 233 213 214 223 224 224 222 223 224 223 221 223 226 228 225 225 222 221 221 224 225 218 218 228 227 224 219 231 233 238 242 269 273 269 254 257
262 254 253 243 233 228 231 221 219 227 229 226 217 220 224 225 226 225 224 222 222 224 230 234 229 230 228 230 233 231 227 227 237 229 232 236 238 252 263 280 264 261 254 252
299 259 251 251 246 241 231 227 227 228 227 228 230 233 232 231 230 229 230 231 230 233 232 229 230 229 227 227 230 235 230 229 235 237 238 245 260 273 274 258 252 267 269 261
296 297 259 251 249 250 249 248 247 244 242 228 229 232 237 241 245 246 245 244 243 231 228 233 234 233 230 229 229 233 237 238 240 247 262 284 279 262 253 265 267 242 247 251
276 277 280 284 283 263 254 251 249 248 247 246 245 243 242 241 239 238 238 238 238 238 238 237 237 237 237 238 241 246 252 260 279 275 259 261 268 271 243 247 250 252 257 269
275 272 272 276 275 276 277 278 278 278 282 285 289 292 297 300 301 305 278 275 272 271 267 265 273 283 288 288 285 285 282 278 275 270 257 242 243 247 252 260 272 279 299 293
272 271 265 263 265 263 262 263 267 265 263 262 262 264 267 269 272 274 275 276 277 278 278 278 277 275 273 270 264 249 244 244 245 247 249 255 263 274 291 266 281 282 298 267

GFSNGP_2pvu_pres_072.txt.gz
Presure
274 265 269 271 268 275 274 285 294 312 291 296 307 299 313 303 305 288 278 277 274 269 260 248 252 253 248 244 244 244 238 231 228 227 232 231 232 229 249 243 244 247 247 266
273 267 267 271 275 262 263 267 279 289 299 273 290 302 298 303 281 295 275 266 269 270 270 272 261 245 244 242 240 239 240 239 236 261 246 249 242 244 239 244 254 266 268 266
275 268 268 270 269 266 268 274 268 272 268 280 287 298 300 298 289 283 293 270 262 257 261 268 268 268 259 258 264 274 264 249 244 240 243 242 238 245 250 253 260 270 267 273
275 281 268 268 264 268 277 268 271 274 273 258 267 278 278 288 301 301 281 284 285 272 263 257 256 253 250 244 240 243 257 266 249 244 244 251 246 258 259 261 240 267 265 262
298 281 276 280 272 274 276 260 277 268 270 273 263 264 263 269 276 284 295 303 300 283 278 282 270 265 265 264 257 250 246 246 247 247 246 262 256 251 174 269 267 264 261 255
300 309 307 281 275 287 270 274 288 263 261 275 269 270 270 270 267 266 270 273 277 287 296 297 285 270 265 274 278 277 277 272 265 255 243 266 259 275 265 264 262 255 247 255
291 302 295 296 304 304 283 281 268 269 271 260 266 267 267 268 269 269 277 284 281 269 281 280 279 278 277 277 276 265 258 257 263 256 258 262 258 263 262 257 252 257 259 254
263 287 288 287 287 292 307 273 269 279 284 277 284 288 255 270 254 257 282 271 264 263 264 261 256 253 251 251 251 251 248 255 257 257 260 261 260 252 240 240 249 251 255 237
271 262 273 281 277 282 298 291 272 275 258 258 273 279 274 273 261 269 269 258 255 249 250 249 247 245 247 256 255 252 251 252 255 256 252 251 233 260 258 254 256 240 229 221
264 265 260 258 277 275 286 290 265 257 266 271 281 270 271 256 252 255 250 256 256 249 250 247 243 252 252 244 246 251 252 249 243 248 235 235 261 247 258 254 239 231 224 216
273 262 262 259 258 275 269 287 278 267 264 275 271 264 262 254 247 246 240 245 245 249 248 246 241 244 250 245 246 244 239 238 232 229 259 252 250 238 261 264 240 229 218 214
269 266 272 263 257 256 264 268 275 264 260 264 271 262 257 256 258 257 253 244 252 248 250 253 246 246 244 245 235 236 233 226 230 254 246 238 245 265 292 251 245 237 237 229
265 262 264 260 265 256 252 256 269 270 267 255 255 262 262 249 248 248 249 245 236 245 252 245 242 243 247 233 227 221 216 247 247 257 239 228 229 238 237 238 236 231 229 231
265 266 263 262 261 263 256 250 254 265 269 261 260 262 258 262 257 258 252 259 252 247 244 244 240 247 230 226 217 215 243 245 243 250 240 246 255 252 243 241 229 235 236 232
271 266 264 259 261 262 267 264 249 252 264 270 268 267 257 253 252 253 255 254 245 242 251 257 252 225 213 213 230 234 241 243 244 239 230 226 229 223 224 228 224 221 219 214
273 267 264 264 265 261 259 271 277 252 251 253 261 264 266 271 271 271 270 262 263 264 256 252 221 210 227 233 237 236 238 242 238 231 226 227 219 216 215 215 215 216 216 219
277 271 264 275 269 259 280 261 271 289 253 250 248 250 249 250 253 255 257 263 268 231 228 220 218 216 214 236 224 218 213 213 215 216 215 214 216 218 222 221 219 221 221 226
270 272 273 273 277 280 295 297 328 337 274 252 246 248 252 246 226 232 235 225 216 222 224 217 215 213 213 216 218 219 220 217 219 221 219 222 225 228 227 226 223 225 226 223
272 274 280 284 294 308 320 334 328 338 293 264 249 250 236 224 228 240 215 214 215 222 223 218 222 221 222 222 219 219 221 222 222 220 219 223 225 226 228 230 227 231 232 229
291 310 334 334 329 325 329 334 355 382 286 273 260 251 224 231 248 288 217 214 215 220 224 221 223 225 217 215 216 216 217 216 216 217 218 218 223 226 228 232 234 229 225 240
314 312 310 311 322 331 338 348 352 308 274 267 267 244 227 235 292 225 222 217 215 220 221 218 218 216 216 216 216 215 216 217 219 222 223 224 225 229 236 238 236 234 234 236
300 301 306 312 319 321 311 301 284 268 269 265 244 246 231 285 252 228 218 219 219 220 217 216 217 216 216 215 216 216 217 217 218 220 223 231 231 229 229 231 234 237 238 240
296 298 299 305 302 293 289 275 263 267 263 245 232 247 275 268 242 229 219 216 219 219 223 223 223 221 218 220 222 224 225 226 226 227 229 241 240 236 236 238 240 240 245 252
287 287 294 298 298 280 271 262 262 259 252 245 238 259 265 248 227 225 223 220 218 216 217 221 224 225 226 226 225 225 227 233 239 240 237 236 239 241 242 246 253 266 279 285
273 275 279 282 285 279 268 256 259 260 252 246 244 242 241 241 239 234 230 230 230 229 227 225 225 228 234 237 239 239 240 242 244 247 253 258 263 272 281 291 275 242 243 249
276 274 275 278 279 281 280 272 259 256 256 255 252 249 244 241 240 239 238 238 238 238 239 241 242 243 244 245 260 269 291 299 301 292 291 289 281 251 247 250 253 258 264 268
278 274 275 275 275 275 277 279 281 281 279 278 276 268 262 257 253 253 264 268 275 272 280 277 274 271 269 266 262 260 257 255 252 250 251 253 258 263 266 272 277 284 295 288